GFSSE_prec_pwat_093.txt.gz
Precipitable_Water
0.83 0.93 0.91 0.92 0.96 1.01 1.06 1.11 1.13 1.15 1.20 1.23 1.27 1.28 1.33 1.40 1.48 1.53 1.52 1.49 1.48 1.50 1.51 1.60 1.62 1.58 1.51 1.50 1.46 1.41 1.39 1.36 1.30 1.30 1.33 1.37 1.44 1.50 1.50 1.58 1.65 1.59 1.60
0.88 0.93 0.86 0.88 0.92 0.98 1.04 1.07 1.11 1.15 1.16 1.21 1.26 1.29 1.36 1.43 1.51 1.57 1.54 1.51 1.50 1.55 1.49 1.56 1.56 1.50 1.48 1.46 1.41 1.35 1.29 1.25 1.24 1.29 1.35 1.44 1.46 1.43 1.49 1.59 1.58 1.55 1.61
0.89 0.89 0.86 0.89 0.90 0.90 0.93 0.96 1.02 1.09 1.14 1.20 1.26 1.30 1.38 1.46 1.53 1.60 1.58 1.57 1.60 1.64 1.58 1.48 1.49 1.51 1.46 1.41 1.35 1.28 1.28 1.26 1.29 1.32 1.36 1.42 1.41 1.42 1.53 1.59 1.54 1.65 1.63
0.87 0.87 0.90 0.88 0.88 0.91 0.93 0.95 1.01 1.09 1.14 1.18 1.24 1.29 1.41 1.49 1.55 1.62 1.59 1.60 1.65 1.63 1.60 1.50 1.49 1.47 1.43 1.35 1.27 1.28 1.35 1.25 1.24 1.33 1.52 1.53 1.47 1.53 1.52 1.55 1.59 1.61 1.53
0.86 0.94 0.95 0.88 0.91 0.93 0.94 0.97 1.02 1.09 1.16 1.19 1.25 1.31 1.41 1.50 1.57 1.62 1.63 1.62 1.59 1.57 1.57 1.56 1.55 1.51 1.36 1.27 1.22 1.32 1.31 1.21 1.25 1.47 1.56 1.55 1.46 1.49 1.44 1.52 1.62 1.56 1.49
0.90 0.98 0.97 0.90 0.93 0.93 0.96 1.00 1.05 1.12 1.20 1.25 1.31 1.34 1.41 1.50 1.56 1.61 1.66 1.59 1.55 1.57 1.58 1.62 1.62 1.54 1.33 1.26 1.24 1.30 1.20 1.18 1.33 1.54 1.55 1.54 1.43 1.51 1.49 1.51 1.44 1.40 1.35
0.93 1.02 1.00 0.92 0.93 0.94 0.97 1.01 1.06 1.11 1.19 1.26 1.34 1.40 1.46 1.53 1.56 1.58 1.61 1.58 1.61 1.59 1.56 1.60 1.60 1.54 1.36 1.26 1.24 1.21 1.18 1.26 1.38 1.52 1.52 1.55 1.43 1.55 1.50 1.37 1.29 1.21 1.16
0.97 1.03 1.03 0.95 0.95 0.95 0.98 1.02 1.04 1.13 1.19 1.27 1.34 1.44 1.55 1.58 1.60 1.57 1.62 1.63 1.70 1.62 1.62 1.54 1.62 1.49 1.37 1.27 1.23 1.18 1.19 1.26 1.45 1.52 1.52 1.51 1.36 1.37 1.38 1.27 1.18 1.09 1.02
1.07 1.05 1.06 0.99 1.00 0.98 1.00 1.04 1.06 1.11 1.17 1.24 1.34 1.44 1.53 1.76 1.68 1.63 1.59 1.57 1.62 1.67 1.66 1.62 1.57 1.40 1.37 1.33 1.26 1.18 1.18 1.24 1.33 1.34 1.45 1.36 1.24 1.24 1.23 1.19 1.10 0.96 0.94
1.10 1.09 1.08 1.07 1.05 1.03 1.04 1.07 1.09 1.11 1.16 1.22 1.29 1.38 1.43 1.50 1.56 1.53 1.54 1.58 1.61 1.66 1.65 1.66 1.59 1.44 1.40 1.38 1.23 1.23 1.20 1.24 1.51 1.24 1.27 1.20 1.17 1.18 1.13 1.08 0.92 0.86 0.85
1.07 1.11 1.11 1.07 1.10 1.11 1.11 1.11 1.10 1.12 1.14 1.16 1.22 1.27 1.33 1.41 1.51 1.61 1.65 1.70 1.73 1.68 1.69 1.68 1.65 1.54 1.37 1.36 1.26 1.26 1.20 1.23 1.20 1.22 1.31 1.20 1.19 1.16 1.03 0.88 0.84 0.82 0.82
1.02 1.04 1.11 1.10 1.09 1.13 1.12 1.17 1.14 1.15 1.15 1.16 1.18 1.21 1.25 1.32 1.47 1.52 1.57 1.68 1.71 1.71 1.70 1.68 1.63 1.61 1.44 1.40 1.36 1.24 1.14 1.23 1.20 1.27 1.31 1.23 1.10 1.05 0.95 0.88 0.81 0.80 0.81
1.06 1.10 1.11 1.10 1.14 1.14 1.10 1.16 1.18 1.18 1.18 1.18 1.18 1.19 1.18 1.27 1.36 1.48 1.52 1.49 1.60 1.68 1.64 1.63 1.58 1.64 1.52 1.47 1.29 1.18 1.19 1.24 1.28 1.20 1.20 1.12 1.06 0.96 0.92 0.88 0.81 0.80 0.82
1.00 1.07 1.17 1.14 1.17 1.17 1.15 1.12 1.17 1.17 1.22 1.21 1.20 1.25 1.20 1.20 1.29 1.40 1.34 1.43 1.51 1.59 1.59 1.61 1.54 1.55 1.57 1.51 1.32 1.27 1.18 1.26 1.20 1.19 1.13 1.09 1.00 0.94 0.91 0.87 0.87 0.85 0.80
0.81 1.02 1.13 1.15 1.15 1.16 1.17 1.13 1.15 1.15 1.22 1.25 1.26 1.24 1.25 1.15 1.16 1.25 1.34 1.38 1.54 1.61 1.60 1.58 1.58 1.56 1.58 1.51 1.36 1.37 1.28 1.18 1.23 1.18 1.13 1.02 0.94 0.93 0.94 0.87 0.87 0.88 0.83
0.59 0.87 1.15 1.13 1.15 1.18 1.14 1.12 1.14 1.19 1.22 1.25 1.24 1.22 1.24 1.19 1.18 1.19 1.25 1.41 1.51 1.56 1.61 1.61 1.62 1.59 1.53 1.48 1.41 1.41 1.24 1.12 1.06 1.02 1.05 0.92 0.91 0.92 0.90 0.90 0.90 0.91 0.90
0.54 0.65 1.01 1.15 1.13 1.13 1.13 1.12 1.15 1.18 1.22 1.26 1.25 1.21 1.20 1.24 1.27 1.26 1.23 1.38 1.45 1.57 1.61 1.60 1.62 1.65 1.53 1.47 1.36 1.36 1.23 1.06 0.98 0.95 0.98 0.90 0.94 0.92 0.92 0.92 0.96 0.92 0.93
0.50 0.61 0.83 1.12 1.09 1.11 1.11 1.14 1.14 1.19 1.19 1.27 1.30 1.22 1.13 1.21 1.31 1.40 1.30 1.51 1.57 1.58 1.61 1.57 1.57 1.53 1.47 1.44 1.32 1.27 1.11 1.02 0.97 0.92 0.95 0.93 0.92 0.89 0.90 0.98 0.96 0.94 0.95
0.46 0.56 0.77 0.98 1.04 1.04 1.13 1.15 1.15 1.19 1.20 1.28 1.34 1.26 1.08 1.20 1.32 1.36 1.38 1.46 1.63 1.57 1.54 1.55 1.53 1.49 1.41 1.38 1.20 1.13 1.06 0.94 0.92 0.88 1.04 0.91 0.89 0.90 0.99 1.00 0.96 0.96 0.96
0.41 0.57 0.73 0.92 1.05 1.02 1.08 1.13 1.16 1.20 1.25 1.29 1.28 1.26 1.13 1.19 1.34 1.39 1.42 1.49 1.60 1.49 1.48 1.52 1.50 1.48 1.41 1.32 1.23 1.10 1.02 0.96 0.89 0.87 0.88 0.93 0.90 0.93 1.02 1.06 0.95 0.96 0.94
0.43 0.54 0.74 0.84 1.00 0.97 0.97 0.95 1.01 1.05 1.19 1.23 1.23 1.25 1.12 1.15 1.33 1.43 1.47 1.50 1.60 1.46 1.48 1.51 1.49 1.41 1.35 1.31 1.17 1.07 1.05 1.04 0.97 0.91 0.93 0.95 0.99 1.02 0.96 1.03 0.99 0.97 0.95
0.47 0.53 0.72 0.78 0.94 0.94 0.95 1.02 1.11 1.16 1.21 1.20 1.21 1.18 1.09 1.20 1.29 1.41 1.49 1.52 1.44 1.45 1.46 1.48 1.44 1.35 1.33 1.33 1.09 1.02 0.84 0.91 0.99 0.96 0.93 0.95 0.98 1.01 0.96 1.00 0.99 0.97 0.97
0.48 0.58 0.68 0.73 0.89 0.95 0.99 1.07 1.16 1.23 1.17 1.09 1.10 1.07 1.10 1.26 1.33 1.41 1.50 1.48 1.47 1.48 1.49 1.44 1.44 1.35 1.24 1.32 1.17 0.88 0.77 0.73 0.86 0.96 0.97 0.94 0.97 0.94 0.96 0.94 0.96 0.96 0.99
0.46 0.64 0.71 0.74 0.91 0.95 1.00 1.04 1.11 1.02 0.94 1.02 1.07 0.94 1.15 1.29 1.34 1.44 1.48 1.50 1.49 1.46 1.47 1.42 1.46 1.37 1.30 1.17 1.19 1.04 0.91 0.86 0.80 0.76 0.90 0.92 0.94 0.94 0.94 0.93 0.92 0.94 0.96
0.44 0.62 0.74 0.78 0.92 0.93 1.00 1.09 1.14 1.03 1.03 1.05 0.89 0.95 1.16 1.26 1.35 1.49 1.51 1.52 1.50 1.45 1.47 1.46 1.44 1.35 1.31 1.22 1.10 1.07 0.99 0.98 0.99 0.84 0.75 0.83 0.91 0.94 0.97 0.98 0.99 0.98 0.99
0.47 0.72 0.79 0.81 0.86 0.94 1.02 1.14 1.13 1.03 1.00 0.87 0.84 0.97 1.10 1.22 1.36 1.46 1.52 1.50 1.48 1.47 1.47 1.47 1.45 1.36 1.29 1.26 1.10 1.04 1.03 0.88 0.94 0.86 0.84 0.88 0.87 0.96 1.00 1.02 1.01 1.00 1.01

GFSSE_prec_pwat_096.txt.gz
Precipitable_Water
1.06 0.88 0.88 0.89 0.88 0.89 0.94 1.01 1.09 1.13 1.14 1.17 1.20 1.21 1.23 1.28 1.36 1.41 1.38 1.38 1.40 1.43 1.44 1.52 1.55 1.62 1.61 1.58 1.61 1.58 1.53 1.56 1.51 1.42 1.39 1.39 1.42 1.48 1.54 1.60 1.64 1.63 1.61
0.93 0.85 0.83 0.84 0.86 0.88 0.95 1.02 1.07 1.12 1.15 1.17 1.20 1.22 1.26 1.34 1.41 1.48 1.47 1.45 1.47 1.48 1.48 1.50 1.54 1.52 1.48 1.47 1.44 1.38 1.40 1.40 1.32 1.29 1.31 1.38 1.45 1.49 1.54 1.66 1.63 1.55 1.61
0.87 0.81 0.81 0.83 0.85 0.86 0.88 0.93 0.98 1.04 1.10 1.16 1.22 1.23 1.28 1.37 1.44 1.52 1.57 1.49 1.51 1.52 1.56 1.49 1.47 1.42 1.41 1.40 1.35 1.32 1.28 1.27 1.28 1.29 1.39 1.40 1.45 1.50 1.54 1.57 1.57 1.57 1.62
0.83 0.74 0.79 0.82 0.81 0.82 0.86 0.92 0.98 1.03 1.09 1.17 1.22 1.23 1.29 1.38 1.48 1.55 1.59 1.55 1.57 1.62 1.62 1.54 1.46 1.44 1.38 1.33 1.30 1.25 1.28 1.26 1.27 1.32 1.50 1.45 1.43 1.50 1.53 1.59 1.61 1.65 1.60
0.78 0.77 0.80 0.78 0.81 0.84 0.86 0.91 0.98 1.05 1.11 1.16 1.20 1.24 1.27 1.37 1.46 1.55 1.59 1.58 1.61 1.65 1.63 1.58 1.52 1.49 1.35 1.24 1.20 1.24 1.32 1.27 1.27 1.39 1.51 1.54 1.50 1.57 1.56 1.64 1.63 1.64 1.52
0.87 0.87 0.80 0.81 0.84 0.85 0.87 0.92 0.98 1.05 1.13 1.17 1.21 1.24 1.28 1.34 1.45 1.55 1.58 1.68 1.68 1.61 1.59 1.62 1.62 1.53 1.41 1.25 1.18 1.25 1.27 1.29 1.32 1.48 1.56 1.62 1.53 1.52 1.54 1.56 1.61 1.54 1.42
0.99 0.99 0.89 0.84 0.86 0.87 0.89 0.93 0.97 1.02 1.10 1.15 1.22 1.28 1.33 1.36 1.45 1.54 1.63 1.69 1.62 1.61 1.60 1.63 1.64 1.53 1.44 1.27 1.24 1.21 1.22 1.26 1.44 1.44 1.60 1.53 1.52 1.52 1.55 1.49 1.44 1.33 1.21
1.08 1.07 0.99 0.91 0.90 0.91 0.93 0.94 0.99 1.04 1.09 1.15 1.22 1.29 1.35 1.42 1.49 1.57 1.63 1.65 1.63 1.63 1.64 1.63 1.63 1.55 1.43 1.35 1.24 1.22 1.23 1.28 1.43 1.48 1.64 1.52 1.57 1.54 1.56 1.42 1.28 1.16 1.08
1.09 1.07 1.05 0.93 0.94 0.93 0.95 0.97 1.00 1.02 1.07 1.14 1.23 1.29 1.39 1.47 1.58 1.62 1.62 1.63 1.63 1.72 1.67 1.66 1.61 1.54 1.43 1.37 1.26 1.21 1.21 1.26 1.44 1.42 1.56 1.57 1.59 1.38 1.43 1.32 1.19 1.08 0.95
1.08 1.11 1.06 0.96 0.95 0.93 0.96 0.99 1.02 1.05 1.09 1.13 1.20 1.25 1.36 1.49 1.54 1.55 1.58 1.56 1.60 1.68 1.68 1.74 1.65 1.62 1.52 1.42 1.27 1.30 1.33 1.22 1.32 1.46 1.45 1.48 1.44 1.29 1.23 1.20 1.14 0.95 0.87
1.08 1.10 1.10 1.01 0.98 0.99 0.99 0.99 1.03 1.06 1.09 1.14 1.19 1.21 1.25 1.33 1.45 1.52 1.59 1.61 1.68 1.73 1.73 1.74 1.69 1.64 1.63 1.53 1.34 1.25 1.25 1.21 1.35 1.52 1.31 1.36 1.22 1.21 1.20 1.11 0.98 0.85 0.82
0.99 1.08 1.11 1.08 1.04 1.05 1.07 1.03 1.01 1.05 1.07 1.11 1.16 1.19 1.19 1.25 1.30 1.39 1.47 1.53 1.56 1.65 1.67 1.70 1.57 1.61 1.63 1.56 1.48 1.38 1.32 1.32 1.27 1.50 1.24 1.20 1.22 1.18 1.09 0.94 0.85 0.81 0.80
0.99 1.10 1.14 1.13 1.11 1.10 1.08 1.09 1.04 1.05 1.07 1.11 1.15 1.18 1.17 1.19 1.23 1.33 1.41 1.50 1.55 1.61 1.65 1.65 1.66 1.56 1.50 1.57 1.49 1.36 1.37 1.36 1.22 1.16 1.18 1.24 1.16 1.04 1.00 0.86 0.80 0.83 0.81
0.99 1.12 1.14 1.17 1.15 1.11 1.13 1.12 1.06 1.05 1.08 1.09 1.14 1.19 1.16 1.13 1.18 1.24 1.28 1.38 1.44 1.43 1.50 1.58 1.67 1.61 1.51 1.58 1.49 1.36 1.38 1.21 1.15 1.20 1.19 1.19 1.10 0.99 0.89 0.86 0.81 0.84 0.82
0.59 1.09 1.19 1.18 1.20 1.16 1.10 1.11 1.12 1.09 1.12 1.15 1.19 1.19 1.22 1.20 1.18 1.23 1.26 1.29 1.35 1.37 1.39 1.49 1.54 1.55 1.50 1.49 1.59 1.42 1.32 1.28 1.20 1.26 1.19 1.14 1.08 0.94 0.89 0.88 0.86 0.83 0.83
0.43 0.64 1.25 1.16 1.22 1.20 1.10 1.12 1.09 1.16 1.22 1.19 1.20 1.22 1.23 1.23 1.25 1.23 1.22 1.22 1.24 1.32 1.38 1.51 1.56 1.54 1.56 1.55 1.54 1.44 1.36 1.38 1.39 1.24 1.17 1.11 1.04 0.90 0.84 0.86 0.88 0.84 0.84
0.37 0.49 1.04 1.20 1.19 1.21 1.12 1.15 1.15 1.13 1.19 1.18 1.21 1.24 1.25 1.24 1.21 1.20 1.22 1.24 1.27 1.31 1.45 1.52 1.58 1.60 1.58 1.58 1.48 1.46 1.37 1.39 1.33 1.22 1.12 1.06 1.01 0.88 0.83 0.88 0.90 0.88 0.85
0.35 0.44 0.80 1.07 1.10 1.15 1.19 1.16 1.15 1.19 1.14 1.14 1.18 1.24 1.29 1.32 1.25 1.17 1.21 1.30 1.42 1.39 1.44 1.51 1.53 1.53 1.54 1.52 1.40 1.45 1.41 1.38 1.18 1.14 1.02 0.95 0.90 0.90 0.84 0.85 0.92 0.89 0.88
0.40 0.44 0.55 1.02 1.06 1.03 1.18 1.16 1.16 1.16 1.16 1.15 1.19 1.21 1.29 1.36 1.27 1.14 1.14 1.31 1.40 1.42 1.42 1.53 1.53 1.52 1.52 1.46 1.34 1.46 1.40 1.30 1.16 1.06 0.96 0.94 0.86 0.89 0.87 0.90 0.92 0.91 0.90
0.46 0.41 0.55 0.90 1.07 1.03 1.15 1.15 1.18 1.17 1.14 1.19 1.19 1.21 1.28 1.31 1.29 1.16 1.12 1.29 1.40 1.41 1.46 1.53 1.49 1.53 1.47 1.41 1.38 1.40 1.34 1.26 1.09 0.97 0.93 0.95 0.86 0.88 0.88 0.92 0.96 1.00 0.96
0.47 0.42 0.50 0.78 1.01 0.96 1.01 1.01 1.00 0.97 1.06 1.11 1.19 1.27 1.30 1.27 1.24 1.18 1.12 1.27 1.44 1.40 1.46 1.54 1.51 1.44 1.44 1.45 1.38 1.26 1.24 1.12 0.99 0.99 1.00 0.93 0.88 0.89 0.94 0.95 0.98 0.96 0.95
0.44 0.45 0.51 0.75 1.01 0.95 0.99 1.05 1.03 1.01 1.04 1.11 1.18 1.26 1.28 1.27 1.23 1.15 1.15 1.25 1.41 1.40 1.44 1.47 1.45 1.41 1.42 1.44 1.26 1.16 1.04 0.98 1.01 0.90 0.93 0.94 0.91 0.94 0.93 0.95 0.89 0.89 0.91
0.42 0.46 0.50 0.69 1.01 1.00 1.02 1.05 1.01 1.05 1.06 1.06 1.13 1.15 1.22 1.23 1.23 1.12 1.23 1.29 1.38 1.45 1.44 1.42 1.45 1.40 1.32 1.37 1.39 1.14 1.00 0.90 0.92 0.93 0.88 0.90 0.99 0.99 0.95 0.94 0.95 0.95 0.91
0.42 0.45 0.52 0.61 0.75 1.04 1.02 0.97 0.90 0.88 0.82 0.94 1.06 1.15 1.15 1.16 1.13 1.08 1.25 1.31 1.38 1.46 1.44 1.41 1.47 1.42 1.38 1.26 1.35 1.26 1.15 1.03 0.79 0.71 0.89 0.90 0.94 0.95 0.98 0.97 0.96 0.99 0.94
0.41 0.48 0.56 0.62 0.71 1.05 0.96 0.98 0.94 0.92 0.94 1.03 1.11 1.08 1.06 1.12 1.00 1.13 1.28 1.31 1.33 1.44 1.44 1.46 1.45 1.44 1.42 1.32 1.29 1.24 1.10 1.03 0.93 0.75 0.69 0.78 0.96 0.96 0.93 0.94 0.98 0.98 0.97
0.47 0.49 0.61 0.67 0.75 0.99 1.00 1.00 1.01 0.94 1.00 1.04 1.04 1.00 1.01 0.89 0.96 1.13 1.24 1.31 1.41 1.42 1.43 1.48 1.48 1.44 1.40 1.37 1.35 1.27 1.06 0.98 0.92 0.81 0.79 0.81 0.78 0.85 0.90 0.95 0.96 1.02 1.00

GFSSE_prec_pwat_102.txt.gz
Precipitable_Water
0.96 1.12 1.17 1.12 1.08 0.98 0.90 0.93 0.98 1.03 1.06 1.07 1.06 1.08 1.13 1.18 1.25 1.29 1.32 1.34 1.38 1.38 1.36 1.37 1.43 1.53 1.60 1.61 1.54 1.58 1.61 1.64 1.71 1.71 1.67 1.63 1.60 1.59 1.60 1.60 1.61 1.63 1.67
1.02 1.14 1.15 1.10 1.05 0.93 0.89 0.92 0.99 1.05 1.09 1.10 1.09 1.09 1.11 1.18 1.26 1.28 1.29 1.30 1.34 1.36 1.38 1.42 1.47 1.57 1.56 1.52 1.53 1.50 1.49 1.56 1.59 1.60 1.57 1.56 1.57 1.55 1.57 1.61 1.63 1.63 1.60
0.95 1.10 1.12 1.05 0.96 0.93 0.89 0.94 1.00 1.05 1.09 1.10 1.11 1.10 1.12 1.20 1.29 1.35 1.33 1.34 1.38 1.41 1.43 1.45 1.50 1.55 1.51 1.51 1.51 1.45 1.46 1.45 1.43 1.42 1.39 1.42 1.49 1.52 1.59 1.63 1.60 1.57 1.58
0.92 1.02 1.02 1.00 0.96 0.94 0.86 0.89 0.93 0.97 1.02 1.05 1.07 1.09 1.15 1.21 1.30 1.38 1.40 1.39 1.41 1.44 1.45 1.47 1.49 1.48 1.46 1.45 1.42 1.41 1.37 1.32 1.32 1.34 1.35 1.39 1.42 1.52 1.61 1.58 1.57 1.59 1.59
0.89 0.92 0.96 0.98 0.94 0.89 0.81 0.84 0.88 0.94 0.98 1.03 1.07 1.10 1.16 1.23 1.32 1.42 1.46 1.44 1.45 1.47 1.50 1.53 1.47 1.43 1.44 1.43 1.40 1.36 1.30 1.30 1.30 1.32 1.39 1.40 1.43 1.54 1.60 1.58 1.61 1.60 1.57
0.81 0.87 0.93 0.93 0.95 0.86 0.83 0.81 0.87 0.94 0.98 1.04 1.08 1.12 1.16 1.24 1.35 1.44 1.49 1.49 1.51 1.53 1.56 1.57 1.50 1.48 1.44 1.42 1.38 1.33 1.29 1.30 1.25 1.30 1.37 1.41 1.42 1.56 1.60 1.59 1.61 1.59 1.54
0.79 0.89 0.93 0.93 0.88 0.84 0.86 0.84 0.85 0.94 0.97 1.04 1.09 1.13 1.16 1.24 1.33 1.41 1.48 1.53 1.53 1.55 1.59 1.56 1.51 1.50 1.47 1.44 1.40 1.34 1.29 1.30 1.28 1.32 1.39 1.41 1.50 1.60 1.64 1.63 1.61 1.53 1.45
0.76 0.86 0.89 0.92 0.85 0.85 0.87 0.88 0.85 0.92 0.98 1.01 1.07 1.13 1.16 1.22 1.30 1.37 1.45 1.52 1.56 1.60 1.60 1.56 1.51 1.51 1.52 1.51 1.46 1.39 1.29 1.30 1.29 1.38 1.47 1.51 1.56 1.63 1.63 1.59 1.50 1.41 1.24
0.82 0.83 0.88 0.94 0.92 0.87 0.87 0.89 0.90 0.89 0.97 1.00 1.04 1.11 1.16 1.22 1.29 1.36 1.43 1.50 1.59 1.62 1.60 1.55 1.57 1.57 1.54 1.55 1.50 1.41 1.32 1.29 1.29 1.37 1.47 1.54 1.55 1.63 1.61 1.51 1.39 1.26 1.08
0.88 0.86 0.84 0.89 0.93 0.92 0.92 0.91 0.94 0.91 0.95 0.98 1.02 1.09 1.16 1.23 1.29 1.37 1.43 1.46 1.55 1.59 1.58 1.58 1.61 1.57 1.54 1.55 1.52 1.49 1.38 1.34 1.32 1.37 1.49 1.54 1.56 1.67 1.64 1.47 1.41 1.21 1.03
0.99 0.97 0.92 0.86 0.90 0.94 0.93 0.94 0.97 0.99 0.97 0.97 1.00 1.05 1.15 1.21 1.27 1.37 1.42 1.45 1.50 1.54 1.58 1.55 1.58 1.54 1.51 1.53 1.54 1.57 1.54 1.38 1.35 1.40 1.46 1.52 1.59 1.61 1.57 1.34 1.29 1.13 0.95
1.00 1.03 1.05 1.00 0.94 0.94 0.97 0.97 0.98 1.00 0.97 0.98 1.00 1.02 1.12 1.17 1.24 1.32 1.39 1.42 1.45 1.49 1.51 1.51 1.53 1.51 1.50 1.48 1.55 1.57 1.59 1.56 1.46 1.46 1.45 1.53 1.61 1.54 1.50 1.26 1.07 1.01 0.89
1.00 1.06 1.06 1.04 1.03 0.97 0.96 0.99 0.99 1.00 0.98 0.99 1.02 1.02 1.09 1.13 1.19 1.25 1.30 1.34 1.37 1.41 1.44 1.45 1.49 1.55 1.51 1.51 1.46 1.51 1.52 1.60 1.49 1.38 1.44 1.48 1.46 1.48 1.44 1.13 1.04 0.92 0.85
0.92 0.93 1.00 1.04 1.05 1.04 0.96 0.97 0.99 0.99 1.00 0.95 1.02 1.01 1.07 1.05 1.07 1.10 1.15 1.20 1.24 1.30 1.30 1.34 1.39 1.42 1.43 1.48 1.45 1.46 1.45 1.59 1.55 1.42 1.40 1.41 1.47 1.29 1.21 1.09 1.06 0.87 0.83
0.82 0.88 0.88 0.98 1.06 1.11 1.06 0.95 0.98 0.98 1.01 0.99 1.01 1.01 1.08 1.01 0.97 1.04 1.10 1.14 1.15 1.19 1.19 1.22 1.28 1.35 1.40 1.48 1.48 1.45 1.46 1.51 1.60 1.52 1.44 1.30 1.38 1.18 1.06 0.98 1.01 0.86 0.86
0.85 0.84 0.85 0.93 1.01 1.18 1.15 1.03 0.97 1.01 1.02 1.05 1.03 1.03 1.06 1.04 1.00 1.00 1.04 1.10 1.13 1.14 1.16 1.20 1.20 1.20 1.25 1.44 1.46 1.48 1.51 1.55 1.58 1.58 1.54 1.37 1.23 1.12 1.05 0.94 0.87 0.84 0.84
0.71 0.87 0.83 0.82 0.96 1.02 1.15 1.24 1.15 1.06 1.07 1.05 1.06 1.07 1.07 1.08 1.05 1.03 1.04 1.08 1.15 1.20 1.18 1.17 1.22 1.21 1.19 1.35 1.40 1.54 1.49 1.53 1.56 1.54 1.57 1.41 1.22 1.11 1.04 0.95 0.90 0.88 0.86
0.47 0.60 0.78 0.87 0.89 0.95 1.04 1.20 1.31 1.25 1.16 1.11 1.16 1.15 1.10 1.13 1.10 1.08 1.06 1.10 1.20 1.24 1.24 1.14 1.16 1.25 1.27 1.25 1.35 1.50 1.52 1.56 1.55 1.55 1.54 1.45 1.27 1.18 1.05 0.94 0.90 0.90 0.88
0.47 0.51 0.65 0.75 0.79 0.85 0.97 1.11 1.25 1.37 1.34 1.24 1.23 1.21 1.18 1.18 1.16 1.12 1.10 1.13 1.23 1.24 1.22 1.17 1.12 1.21 1.27 1.30 1.30 1.44 1.48 1.52 1.53 1.56 1.52 1.47 1.31 1.17 1.04 0.97 0.85 0.84 0.83
0.43 0.49 0.60 0.68 0.71 0.76 0.88 1.02 1.22 1.38 1.37 1.37 1.29 1.22 1.24 1.24 1.22 1.18 1.15 1.18 1.26 1.23 1.18 1.15 1.11 1.18 1.29 1.34 1.38 1.41 1.47 1.51 1.54 1.53 1.53 1.50 1.32 1.11 1.03 0.92 0.84 0.79 0.83
0.44 0.45 0.55 0.64 0.71 0.83 0.88 0.87 1.09 1.28 1.23 1.20 1.23 1.29 1.28 1.28 1.26 1.21 1.19 1.22 1.28 1.21 1.16 1.13 1.12 1.13 1.27 1.41 1.35 1.39 1.42 1.50 1.46 1.52 1.54 1.44 1.30 1.09 1.05 0.86 0.83 0.83 0.84
0.41 0.47 0.55 0.63 0.70 0.81 0.85 0.85 1.04 1.08 1.20 1.22 1.22 1.25 1.33 1.31 1.28 1.23 1.21 1.24 1.29 1.23 1.19 1.14 1.11 1.14 1.30 1.42 1.25 1.26 1.15 1.25 1.37 1.45 1.48 1.37 1.26 1.12 0.95 0.83 0.82 0.82 0.83
0.40 0.43 0.47 0.60 0.71 0.78 0.85 0.94 1.02 1.12 1.22 1.17 1.15 1.14 1.22 1.29 1.27 1.23 1.24 1.29 1.29 1.26 1.15 1.15 1.10 1.19 1.19 1.37 1.42 1.25 1.10 1.02 1.18 1.36 1.36 1.34 1.27 1.08 0.91 0.86 0.83 0.86 0.89
0.55 0.52 0.49 0.58 0.71 0.82 0.93 0.89 0.90 0.88 0.86 0.91 0.99 1.07 1.11 1.19 1.18 1.24 1.28 1.31 1.29 1.25 1.16 1.14 1.09 1.20 1.30 1.26 1.37 1.39 1.34 1.27 1.10 1.06 1.28 1.31 1.24 1.02 0.88 0.85 0.82 0.85 0.89
0.71 0.67 0.63 0.64 0.81 0.82 0.88 0.92 0.93 0.94 1.00 1.04 1.02 0.98 1.07 1.13 1.20 1.20 1.22 1.28 1.28 1.22 1.19 1.16 1.02 1.19 1.28 1.28 1.30 1.30 1.28 1.26 1.24 1.12 1.03 1.15 1.20 1.00 0.94 0.85 0.84 0.87 0.87
0.77 0.76 0.71 0.79 0.76 0.89 0.86 0.93 1.01 0.99 0.97 0.94 0.93 0.91 0.98 1.05 1.11 1.17 1.26 1.28 1.27 1.21 1.18 1.05 1.10 1.18 1.22 1.34 1.34 1.34 1.27 1.16 1.13 1.11 1.05 1.09 1.02 0.95 0.94 0.93 0.94 0.94 0.95

GFSSE_prec_pwat_105.txt.gz
Precipitable_Water
0.86 1.04 1.14 1.23 1.23 1.14 1.04 0.90 0.89 0.90 0.93 0.97 1.01 1.10 1.11 1.14 1.20 1.28 1.33 1.37 1.38 1.38 1.34 1.35 1.38 1.49 1.56 1.57 1.59 1.57 1.60 1.62 1.69 1.71 1.66 1.64 1.67 1.72 1.68 1.66 1.66 1.67 1.69
0.93 1.10 1.18 1.25 1.23 1.14 1.03 0.94 0.89 0.92 0.96 1.00 1.04 1.10 1.13 1.18 1.24 1.27 1.31 1.34 1.36 1.33 1.33 1.36 1.45 1.58 1.60 1.58 1.54 1.54 1.55 1.58 1.60 1.59 1.56 1.56 1.57 1.58 1.58 1.59 1.65 1.67 1.69
0.96 1.16 1.20 1.22 1.18 1.10 1.03 0.99 0.92 0.93 0.97 1.02 1.06 1.10 1.14 1.19 1.25 1.26 1.29 1.31 1.32 1.34 1.37 1.41 1.50 1.56 1.52 1.49 1.49 1.49 1.52 1.52 1.52 1.50 1.47 1.44 1.47 1.48 1.52 1.59 1.63 1.64 1.59
0.99 1.12 1.16 1.15 1.07 1.04 1.06 1.02 0.95 0.95 0.95 1.00 1.05 1.09 1.14 1.19 1.26 1.30 1.32 1.31 1.35 1.38 1.41 1.45 1.50 1.48 1.44 1.45 1.45 1.47 1.47 1.45 1.43 1.41 1.40 1.39 1.42 1.45 1.51 1.56 1.58 1.59 1.57
1.01 1.12 1.11 1.06 1.01 1.02 1.05 1.00 0.91 0.91 0.91 0.94 1.00 1.08 1.15 1.22 1.29 1.34 1.35 1.35 1.38 1.41 1.44 1.45 1.47 1.41 1.40 1.39 1.41 1.41 1.40 1.38 1.38 1.38 1.38 1.39 1.43 1.47 1.54 1.55 1.56 1.61 1.55
0.98 1.03 0.97 0.95 1.02 1.00 0.98 0.95 0.92 0.91 0.92 0.95 0.98 1.07 1.14 1.22 1.30 1.38 1.40 1.40 1.43 1.49 1.48 1.49 1.44 1.39 1.37 1.41 1.43 1.40 1.36 1.35 1.36 1.36 1.37 1.40 1.44 1.49 1.60 1.57 1.58 1.60 1.50
0.89 0.91 0.93 0.94 0.92 0.91 0.93 0.90 0.91 0.92 0.93 0.96 1.01 1.05 1.13 1.21 1.30 1.39 1.44 1.48 1.52 1.53 1.55 1.49 1.44 1.41 1.42 1.42 1.39 1.37 1.35 1.34 1.33 1.31 1.35 1.40 1.41 1.49 1.61 1.59 1.58 1.56 1.50
0.79 0.89 0.96 0.96 0.95 0.94 0.93 0.92 0.92 0.93 0.93 0.99 1.02 1.04 1.11 1.19 1.28 1.38 1.41 1.47 1.52 1.56 1.57 1.49 1.43 1.42 1.43 1.41 1.42 1.41 1.37 1.34 1.31 1.31 1.37 1.40 1.46 1.55 1.63 1.61 1.57 1.53 1.44
0.89 0.91 0.94 0.96 0.96 0.95 0.95 0.97 0.94 0.95 0.93 1.00 1.03 1.03 1.08 1.15 1.23 1.33 1.37 1.45 1.50 1.58 1.62 1.55 1.49 1.46 1.43 1.43 1.45 1.45 1.36 1.32 1.28 1.32 1.40 1.45 1.53 1.58 1.62 1.59 1.50 1.41 1.28
0.92 0.89 0.90 0.95 0.97 0.97 0.96 0.97 0.98 0.98 0.97 0.99 1.05 1.04 1.05 1.12 1.19 1.30 1.35 1.42 1.48 1.55 1.60 1.56 1.51 1.47 1.48 1.47 1.46 1.48 1.42 1.35 1.31 1.32 1.48 1.48 1.53 1.60 1.63 1.54 1.42 1.31 1.18
0.87 0.89 0.90 0.90 0.95 0.97 0.96 0.98 1.00 1.02 1.03 1.00 1.06 1.07 1.06 1.10 1.16 1.27 1.34 1.40 1.42 1.49 1.51 1.52 1.50 1.47 1.49 1.48 1.46 1.51 1.49 1.44 1.32 1.28 1.44 1.52 1.53 1.60 1.64 1.58 1.42 1.36 1.16
0.76 0.81 0.90 0.92 0.93 0.96 0.96 0.99 1.01 1.04 1.04 1.03 1.04 1.10 1.09 1.09 1.14 1.22 1.32 1.38 1.39 1.44 1.45 1.46 1.49 1.48 1.50 1.49 1.50 1.54 1.52 1.48 1.53 1.39 1.42 1.52 1.53 1.64 1.63 1.53 1.35 1.22 1.09
0.82 0.88 0.89 0.93 0.98 0.96 0.93 0.96 0.98 1.03 1.03 1.04 1.05 1.05 1.07 1.11 1.13 1.18 1.25 1.31 1.34 1.37 1.36 1.39 1.42 1.46 1.49 1.48 1.48 1.51 1.54 1.50 1.47 1.51 1.52 1.49 1.50 1.63 1.55 1.44 1.35 1.05 0.95
1.06 1.04 1.11 1.15 1.12 1.04 1.00 0.96 0.98 0.98 1.04 1.00 1.05 1.04 1.04 1.07 1.08 1.09 1.15 1.21 1.24 1.26 1.24 1.28 1.31 1.39 1.43 1.48 1.44 1.43 1.53 1.49 1.46 1.54 1.61 1.59 1.54 1.58 1.50 1.43 1.23 1.04 0.88
1.32 1.24 1.07 1.11 1.10 1.11 1.06 1.01 0.97 0.98 0.98 1.00 1.01 1.07 1.06 1.08 1.04 1.04 1.11 1.16 1.18 1.22 1.18 1.16 1.19 1.18 1.24 1.33 1.38 1.39 1.44 1.48 1.46 1.53 1.59 1.54 1.48 1.52 1.48 1.28 1.13 1.04 0.90
1.05 1.23 1.24 1.08 1.07 1.07 1.04 1.03 1.02 1.01 0.99 0.99 1.02 1.06 1.10 1.09 1.07 1.03 1.06 1.10 1.14 1.19 1.20 1.18 1.13 1.15 1.18 1.20 1.23 1.28 1.40 1.46 1.46 1.51 1.58 1.55 1.44 1.40 1.34 1.16 1.04 0.96 0.90
0.52 0.79 1.19 1.16 1.05 1.02 1.01 1.06 1.07 1.10 1.04 0.99 1.02 1.06 1.11 1.13 1.08 1.07 1.04 1.06 1.11 1.18 1.20 1.21 1.19 1.15 1.13 1.20 1.15 1.19 1.37 1.44 1.47 1.53 1.60 1.61 1.51 1.36 1.29 1.15 1.06 0.93 0.89
0.47 0.51 0.74 1.20 1.18 1.08 1.03 1.03 1.07 1.09 1.15 1.03 1.06 1.07 1.11 1.15 1.12 1.11 1.07 1.05 1.13 1.16 1.18 1.19 1.19 1.18 1.10 1.10 1.19 1.25 1.36 1.41 1.49 1.55 1.58 1.63 1.58 1.41 1.22 1.11 1.02 0.90 0.86
0.44 0.47 0.54 0.78 1.01 1.15 1.09 1.09 1.06 1.05 1.12 1.26 1.17 1.12 1.14 1.17 1.17 1.13 1.10 1.09 1.14 1.14 1.16 1.19 1.20 1.16 1.07 1.04 1.14 1.30 1.35 1.40 1.47 1.53 1.55 1.60 1.59 1.47 1.29 1.14 1.05 0.95 0.87
0.44 0.45 0.48 0.64 0.80 0.98 1.13 1.11 1.11 1.08 1.06 1.28 1.38 1.27 1.21 1.19 1.19 1.18 1.16 1.15 1.18 1.16 1.16 1.21 1.18 1.17 1.11 1.10 1.14 1.23 1.37 1.42 1.46 1.49 1.50 1.57 1.57 1.49 1.36 1.16 1.07 0.99 0.90
0.39 0.44 0.48 0.57 0.72 0.87 1.03 1.00 0.93 0.89 0.93 1.04 1.33 1.47 1.39 1.31 1.26 1.22 1.21 1.21 1.22 1.15 1.16 1.22 1.19 1.09 1.08 1.17 1.16 1.24 1.34 1.41 1.43 1.47 1.52 1.53 1.52 1.51 1.39 1.14 1.05 0.93 0.86
0.33 0.38 0.44 0.54 0.64 0.78 0.89 0.94 0.91 0.87 0.92 0.94 1.22 1.41 1.36 1.39 1.35 1.28 1.24 1.22 1.22 1.20 1.19 1.22 1.18 1.06 1.09 1.16 1.11 1.20 1.08 1.25 1.41 1.45 1.51 1.49 1.49 1.50 1.39 1.15 1.12 0.89 0.77
0.33 0.36 0.38 0.47 0.59 0.73 0.85 0.96 0.96 1.00 1.03 1.02 1.18 1.29 1.27 1.29 1.34 1.31 1.32 1.28 1.25 1.23 1.17 1.19 1.17 1.10 1.00 1.11 1.20 1.17 1.05 1.01 1.16 1.37 1.41 1.46 1.46 1.42 1.34 1.15 1.13 0.89 0.80
0.49 0.54 0.52 0.45 0.59 0.75 0.88 0.87 0.83 0.75 0.75 0.90 1.04 1.10 1.24 1.29 1.34 1.27 1.30 1.28 1.23 1.22 1.20 1.20 1.22 1.14 1.09 0.95 1.16 1.31 1.33 1.24 1.07 1.06 1.30 1.36 1.45 1.37 1.31 1.17 1.10 0.90 0.81
0.63 0.65 0.66 0.53 0.57 0.72 0.85 0.87 0.83 0.82 0.82 0.89 1.03 1.06 1.09 1.20 1.29 1.19 1.26 1.26 1.20 1.19 1.24 1.26 1.21 1.10 1.15 1.02 1.02 1.15 1.29 1.31 1.29 1.16 1.04 1.17 1.34 1.36 1.32 1.21 1.05 0.91 0.82
0.71 0.73 0.71 0.66 0.62 0.76 0.84 0.89 0.85 0.81 0.86 0.87 0.97 0.97 1.01 1.11 1.15 1.13 1.20 1.21 1.18 1.20 1.23 1.25 1.23 1.15 1.13 1.07 1.05 1.15 1.21 1.20 1.17 1.17 1.10 1.15 1.16 1.25 1.29 1.23 1.01 0.90 0.85

GFSSE_prec_pwat_108.txt.gz
Precipitable_Water
0.78 1.00 1.13 1.17 1.21 1.17 1.09 0.99 0.92 0.90 0.91 0.94 1.00 1.06 1.11 1.14 1.15 1.19 1.24 1.31 1.35 1.38 1.37 1.37 1.38 1.41 1.48 1.52 1.51 1.55 1.62 1.64 1.70 1.69 1.68 1.65 1.64 1.66 1.67 1.70 1.66 1.68 1.72
0.86 1.05 1.15 1.20 1.23 1.21 1.11 1.01 0.94 0.90 0.92 0.96 0.99 1.03 1.09 1.12 1.16 1.22 1.25 1.30 1.33 1.34 1.34 1.38 1.41 1.49 1.53 1.55 1.54 1.56 1.59 1.64 1.67 1.64 1.62 1.65 1.62 1.60 1.61 1.60 1.59 1.64 1.68
0.91 1.09 1.17 1.22 1.24 1.21 1.11 1.04 1.01 0.94 0.93 0.97 1.00 1.03 1.08 1.15 1.20 1.23 1.26 1.29 1.32 1.31 1.34 1.37 1.44 1.53 1.53 1.52 1.51 1.53 1.55 1.58 1.57 1.58 1.60 1.55 1.52 1.54 1.55 1.58 1.61 1.63 1.65
0.94 1.11 1.18 1.21 1.24 1.19 1.09 1.05 1.05 1.00 0.94 0.96 1.01 1.06 1.11 1.15 1.20 1.23 1.27 1.30 1.30 1.32 1.37 1.40 1.46 1.52 1.45 1.44 1.46 1.49 1.51 1.52 1.53 1.51 1.44 1.47 1.46 1.48 1.49 1.56 1.60 1.58 1.58
0.94 1.08 1.16 1.21 1.21 1.15 1.08 1.07 1.05 1.03 0.97 0.94 0.97 1.02 1.08 1.11 1.16 1.23 1.28 1.30 1.33 1.36 1.40 1.42 1.45 1.45 1.40 1.41 1.43 1.44 1.43 1.43 1.43 1.42 1.41 1.43 1.44 1.47 1.52 1.54 1.55 1.57 1.55
1.00 1.08 1.12 1.14 1.12 1.11 1.08 1.05 1.03 1.00 0.96 0.94 0.96 1.00 1.06 1.11 1.13 1.22 1.29 1.32 1.38 1.38 1.39 1.41 1.45 1.41 1.39 1.39 1.41 1.40 1.41 1.42 1.42 1.39 1.38 1.40 1.44 1.51 1.58 1.58 1.54 1.56 1.54
0.93 1.04 1.08 1.06 1.07 1.10 1.06 1.03 1.05 1.02 0.98 0.96 0.99 1.01 1.07 1.11 1.15 1.22 1.32 1.42 1.42 1.43 1.45 1.44 1.42 1.40 1.41 1.41 1.38 1.36 1.36 1.37 1.38 1.35 1.35 1.38 1.45 1.51 1.56 1.56 1.57 1.59 1.50
0.93 1.03 1.04 1.06 1.11 1.11 1.06 1.05 1.06 1.05 1.04 1.01 1.01 1.04 1.08 1.13 1.16 1.22 1.29 1.41 1.47 1.52 1.53 1.46 1.42 1.43 1.42 1.38 1.34 1.34 1.36 1.37 1.33 1.32 1.33 1.41 1.48 1.48 1.55 1.57 1.58 1.52 1.47
1.02 1.01 1.02 1.09 1.11 1.07 1.03 1.03 1.04 1.06 1.07 1.07 1.05 1.07 1.09 1.13 1.17 1.20 1.27 1.36 1.44 1.55 1.56 1.47 1.43 1.42 1.39 1.35 1.33 1.34 1.38 1.43 1.32 1.25 1.33 1.44 1.53 1.53 1.59 1.60 1.58 1.49 1.40
1.02 1.00 1.03 1.10 1.09 1.07 1.06 1.04 1.03 1.06 1.09 1.11 1.07 1.09 1.11 1.13 1.17 1.19 1.24 1.29 1.37 1.41 1.46 1.46 1.45 1.43 1.39 1.37 1.38 1.39 1.39 1.47 1.40 1.30 1.29 1.42 1.51 1.62 1.61 1.60 1.54 1.45 1.34
0.94 0.97 1.03 1.03 1.07 1.05 1.05 1.07 1.07 1.08 1.10 1.12 1.11 1.09 1.14 1.15 1.16 1.20 1.22 1.27 1.33 1.38 1.42 1.45 1.44 1.43 1.41 1.40 1.40 1.41 1.41 1.44 1.44 1.35 1.30 1.43 1.56 1.63 1.63 1.59 1.52 1.40 1.31
0.90 0.94 1.00 1.00 0.99 1.02 1.04 1.08 1.10 1.12 1.12 1.12 1.12 1.10 1.11 1.15 1.16 1.19 1.22 1.26 1.31 1.34 1.36 1.40 1.42 1.42 1.42 1.40 1.41 1.44 1.42 1.48 1.49 1.48 1.41 1.38 1.53 1.65 1.60 1.59 1.53 1.43 1.34
1.02 1.04 1.11 1.04 1.01 1.00 1.00 1.05 1.09 1.12 1.11 1.10 1.11 1.09 1.10 1.12 1.18 1.19 1.22 1.24 1.27 1.31 1.31 1.37 1.37 1.37 1.36 1.37 1.40 1.43 1.44 1.49 1.52 1.54 1.55 1.45 1.54 1.63 1.64 1.61 1.54 1.41 1.18
1.11 1.06 1.06 1.15 1.12 1.04 1.03 1.04 1.04 1.05 1.08 1.05 1.07 1.09 1.07 1.07 1.10 1.15 1.17 1.18 1.20 1.26 1.22 1.28 1.29 1.30 1.32 1.35 1.37 1.39 1.42 1.45 1.48 1.54 1.56 1.59 1.49 1.63 1.64 1.60 1.50 1.42 1.11
1.10 1.20 1.20 1.19 1.16 1.17 1.15 1.11 1.06 1.02 1.03 1.06 1.07 1.08 1.08 1.06 1.05 1.12 1.16 1.18 1.18 1.23 1.19 1.20 1.21 1.21 1.22 1.21 1.25 1.30 1.34 1.41 1.43 1.45 1.52 1.56 1.59 1.62 1.68 1.57 1.46 1.38 1.08
0.66 0.93 1.27 1.41 1.33 1.31 1.22 1.21 1.13 1.10 1.05 1.06 1.08 1.09 1.05 1.04 1.07 1.11 1.13 1.14 1.15 1.20 1.18 1.19 1.19 1.21 1.23 1.22 1.20 1.23 1.23 1.29 1.32 1.40 1.41 1.50 1.61 1.66 1.68 1.58 1.44 1.32 1.03
0.49 0.55 0.79 1.16 1.44 1.36 1.27 1.27 1.28 1.13 1.09 1.05 1.02 1.09 1.07 1.06 1.09 1.10 1.11 1.12 1.14 1.20 1.21 1.21 1.21 1.24 1.21 1.21 1.15 1.20 1.24 1.25 1.27 1.38 1.39 1.44 1.56 1.65 1.59 1.54 1.39 1.17 0.99
0.42 0.42 0.47 0.69 0.92 1.13 1.27 1.26 1.24 1.22 1.17 1.14 1.12 1.07 1.12 1.11 1.12 1.11 1.12 1.10 1.17 1.18 1.20 1.19 1.17 1.14 1.17 1.17 1.14 1.09 1.16 1.27 1.30 1.38 1.44 1.48 1.57 1.63 1.54 1.48 1.35 1.15 1.02
0.41 0.40 0.41 0.52 0.69 0.83 1.01 1.29 1.24 1.23 1.18 1.16 1.19 1.18 1.10 1.13 1.12 1.12 1.14 1.16 1.18 1.16 1.16 1.17 1.15 1.14 1.12 1.14 1.11 1.13 1.10 1.17 1.31 1.41 1.46 1.53 1.56 1.63 1.58 1.47 1.31 1.17 1.03
0.36 0.38 0.39 0.46 0.60 0.73 0.84 1.05 1.30 1.29 1.23 1.19 1.16 1.20 1.19 1.12 1.15 1.16 1.16 1.19 1.19 1.15 1.13 1.16 1.14 1.18 1.17 1.17 1.14 1.11 1.13 1.22 1.32 1.41 1.49 1.55 1.53 1.59 1.63 1.50 1.31 1.19 1.07
0.29 0.32 0.34 0.38 0.48 0.68 0.79 0.84 0.94 1.10 1.13 1.12 1.14 1.17 1.23 1.26 1.20 1.17 1.16 1.19 1.22 1.14 1.13 1.16 1.16 1.12 1.16 1.22 1.08 1.04 1.13 1.24 1.33 1.47 1.49 1.48 1.50 1.52 1.62 1.54 1.39 1.19 1.07
0.25 0.28 0.29 0.33 0.38 0.60 0.77 0.85 0.90 0.92 1.16 1.09 1.09 1.17 1.19 1.29 1.33 1.23 1.17 1.18 1.22 1.20 1.19 1.16 1.15 1.09 1.16 1.21 1.00 0.97 0.85 1.03 1.32 1.39 1.49 1.46 1.45 1.52 1.52 1.51 1.46 1.25 1.09
0.41 0.41 0.39 0.32 0.35 0.49 0.74 0.88 0.96 1.04 1.16 1.10 1.07 1.06 1.14 1.21 1.38 1.36 1.32 1.29 1.29 1.29 1.20 1.20 1.18 1.12 1.07 1.16 1.15 0.96 0.79 0.77 1.06 1.30 1.35 1.43 1.45 1.47 1.53 1.49 1.45 1.30 1.05
0.47 0.51 0.51 0.51 0.42 0.50 0.65 0.78 0.86 0.83 0.79 0.90 0.96 0.96 1.04 1.18 1.33 1.25 1.25 1.32 1.31 1.35 1.26 1.24 1.22 1.18 1.16 1.06 1.11 1.10 1.08 0.96 0.96 0.99 1.26 1.35 1.48 1.44 1.48 1.47 1.44 1.33 1.12
0.51 0.53 0.54 0.54 0.53 0.50 0.67 0.75 0.82 0.84 0.84 0.83 0.92 0.97 0.99 1.10 1.34 1.28 1.24 1.26 1.28 1.26 1.30 1.24 1.18 1.18 1.19 1.14 1.06 0.99 1.05 0.96 1.09 1.08 1.03 1.17 1.34 1.43 1.47 1.46 1.43 1.31 1.18
0.55 0.55 0.57 0.56 0.57 0.55 0.70 0.77 0.81 0.82 0.81 0.83 0.89 0.90 0.97 1.04 1.19 1.29 1.25 1.26 1.22 1.18 1.22 1.21 1.20 1.18 1.19 1.22 1.14 1.06 0.99 0.85 0.93 1.04 1.08 1.17 1.15 1.27 1.41 1.46 1.41 1.31 1.21

GFSSE_prec_pwat_111.txt.gz
Precipitable_Water
0.85 1.00 1.07 1.07 1.14 1.16 1.14 1.16 1.17 1.13 1.10 1.11 1.14 1.15 1.17 1.18 1.16 1.15 1.20 1.26 1.30 1.29 1.31 1.30 1.33 1.37 1.43 1.50 1.51 1.54 1.59 1.66 1.70 1.71 1.71 1.67 1.68 1.66 1.66 1.67 1.70 1.70 1.72
0.95 1.07 1.06 1.07 1.15 1.17 1.14 1.15 1.13 1.13 1.12 1.10 1.10 1.12 1.14 1.15 1.14 1.16 1.22 1.28 1.29 1.28 1.27 1.29 1.33 1.43 1.53 1.51 1.49 1.57 1.62 1.64 1.73 1.66 1.65 1.70 1.68 1.65 1.62 1.62 1.65 1.66 1.71
0.99 1.09 1.10 1.12 1.19 1.18 1.16 1.13 1.08 1.08 1.09 1.10 1.09 1.09 1.11 1.13 1.14 1.17 1.20 1.23 1.26 1.26 1.28 1.32 1.36 1.47 1.51 1.50 1.51 1.55 1.59 1.62 1.62 1.60 1.60 1.62 1.61 1.59 1.56 1.57 1.61 1.66 1.68
1.04 1.11 1.15 1.17 1.21 1.20 1.16 1.11 1.07 1.05 1.07 1.10 1.10 1.10 1.11 1.14 1.17 1.18 1.17 1.20 1.23 1.24 1.31 1.35 1.42 1.48 1.49 1.48 1.48 1.51 1.52 1.55 1.57 1.56 1.53 1.49 1.52 1.54 1.52 1.60 1.63 1.66 1.64
1.07 1.10 1.15 1.21 1.22 1.20 1.16 1.11 1.06 1.05 1.09 1.10 1.11 1.09 1.09 1.14 1.18 1.19 1.17 1.19 1.20 1.27 1.33 1.39 1.43 1.45 1.41 1.41 1.44 1.46 1.45 1.47 1.47 1.45 1.43 1.47 1.49 1.54 1.54 1.58 1.60 1.61 1.59
1.05 1.11 1.19 1.23 1.22 1.17 1.13 1.11 1.09 1.06 1.09 1.12 1.11 1.10 1.12 1.15 1.17 1.19 1.19 1.19 1.22 1.30 1.37 1.42 1.44 1.43 1.39 1.40 1.41 1.40 1.41 1.39 1.40 1.41 1.43 1.43 1.44 1.49 1.60 1.59 1.58 1.57 1.56
1.09 1.10 1.17 1.20 1.20 1.15 1.13 1.12 1.12 1.08 1.08 1.09 1.11 1.13 1.14 1.15 1.16 1.19 1.21 1.22 1.28 1.30 1.37 1.45 1.44 1.41 1.40 1.39 1.39 1.38 1.35 1.34 1.36 1.34 1.38 1.38 1.45 1.51 1.59 1.57 1.56 1.60 1.53
1.10 1.15 1.20 1.22 1.18 1.15 1.15 1.14 1.12 1.08 1.07 1.09 1.11 1.13 1.15 1.17 1.18 1.21 1.23 1.27 1.29 1.31 1.38 1.45 1.43 1.39 1.38 1.36 1.35 1.32 1.32 1.36 1.39 1.36 1.34 1.34 1.45 1.55 1.54 1.52 1.56 1.59 1.52
1.19 1.21 1.20 1.21 1.18 1.18 1.17 1.14 1.12 1.09 1.08 1.10 1.12 1.13 1.15 1.18 1.20 1.23 1.26 1.30 1.33 1.34 1.43 1.44 1.40 1.38 1.37 1.34 1.32 1.32 1.36 1.38 1.42 1.40 1.33 1.34 1.44 1.51 1.56 1.53 1.54 1.54 1.43
1.26 1.27 1.25 1.17 1.17 1.21 1.22 1.19 1.14 1.11 1.10 1.13 1.16 1.17 1.16 1.19 1.23 1.25 1.28 1.31 1.35 1.34 1.38 1.36 1.41 1.41 1.38 1.33 1.33 1.34 1.37 1.38 1.44 1.44 1.36 1.36 1.47 1.66 1.62 1.59 1.55 1.52 1.40
1.28 1.24 1.28 1.18 1.21 1.23 1.21 1.20 1.18 1.15 1.13 1.14 1.18 1.21 1.21 1.21 1.24 1.28 1.29 1.31 1.32 1.33 1.33 1.31 1.38 1.41 1.38 1.36 1.35 1.36 1.40 1.39 1.43 1.48 1.44 1.36 1.42 1.59 1.68 1.61 1.58 1.50 1.42
1.22 1.24 1.22 1.17 1.18 1.23 1.23 1.20 1.19 1.18 1.20 1.19 1.19 1.23 1.25 1.21 1.22 1.27 1.29 1.29 1.32 1.34 1.34 1.30 1.34 1.38 1.38 1.38 1.40 1.39 1.41 1.40 1.40 1.50 1.53 1.46 1.43 1.59 1.73 1.63 1.58 1.52 1.40
1.18 1.21 1.14 1.13 1.17 1.18 1.17 1.20 1.18 1.16 1.15 1.17 1.21 1.23 1.23 1.24 1.21 1.24 1.27 1.29 1.32 1.35 1.35 1.31 1.32 1.34 1.34 1.34 1.35 1.38 1.40 1.41 1.41 1.49 1.52 1.52 1.48 1.52 1.72 1.63 1.56 1.53 1.42
1.21 1.19 1.10 1.14 1.15 1.14 1.19 1.18 1.18 1.12 1.13 1.11 1.14 1.19 1.17 1.15 1.17 1.16 1.21 1.25 1.27 1.31 1.31 1.30 1.30 1.32 1.29 1.30 1.32 1.34 1.37 1.38 1.46 1.48 1.53 1.54 1.59 1.53 1.68 1.68 1.62 1.56 1.44
0.90 1.10 1.18 1.13 1.09 1.13 1.12 1.14 1.17 1.14 1.14 1.12 1.16 1.18 1.16 1.12 1.10 1.15 1.16 1.23 1.24 1.29 1.29 1.29 1.27 1.28 1.25 1.27 1.27 1.25 1.27 1.34 1.37 1.43 1.47 1.47 1.57 1.64 1.68 1.70 1.63 1.59 1.44
0.56 0.79 1.02 1.11 1.14 1.13 1.08 1.10 1.13 1.19 1.20 1.17 1.16 1.15 1.19 1.16 1.11 1.10 1.12 1.15 1.21 1.24 1.27 1.29 1.25 1.25 1.25 1.28 1.27 1.25 1.26 1.30 1.31 1.32 1.35 1.38 1.47 1.57 1.66 1.74 1.66 1.57 1.46
0.52 0.55 0.71 0.86 1.04 1.17 1.33 1.17 1.19 1.25 1.29 1.20 1.19 1.18 1.16 1.18 1.16 1.12 1.09 1.12 1.15 1.25 1.24 1.28 1.28 1.29 1.27 1.28 1.26 1.27 1.27 1.27 1.29 1.32 1.28 1.29 1.42 1.42 1.66 1.75 1.69 1.57 1.42
0.47 0.51 0.54 0.69 0.83 1.00 1.17 1.38 1.39 1.24 1.27 1.35 1.31 1.21 1.19 1.16 1.16 1.12 1.10 1.11 1.18 1.17 1.24 1.22 1.23 1.20 1.21 1.21 1.22 1.24 1.26 1.25 1.24 1.27 1.30 1.30 1.34 1.39 1.50 1.55 1.65 1.57 1.39
0.39 0.44 0.48 0.52 0.68 0.75 0.90 1.10 1.31 1.27 1.21 1.25 1.26 1.23 1.18 1.23 1.16 1.12 1.11 1.15 1.21 1.15 1.16 1.19 1.19 1.19 1.15 1.17 1.19 1.23 1.23 1.17 1.17 1.26 1.23 1.34 1.42 1.45 1.49 1.56 1.67 1.55 1.41
0.26 0.34 0.41 0.45 0.50 0.69 0.80 0.87 1.01 1.14 1.21 1.28 1.18 1.16 1.18 1.24 1.24 1.17 1.15 1.14 1.19 1.14 1.12 1.13 1.13 1.21 1.19 1.19 1.18 1.18 1.17 1.16 1.19 1.15 1.20 1.35 1.47 1.49 1.57 1.61 1.62 1.57 1.40
0.31 0.29 0.28 0.37 0.41 0.51 0.71 0.70 0.78 0.79 0.95 1.14 1.20 1.17 1.19 1.23 1.33 1.23 1.17 1.15 1.17 1.10 1.10 1.12 1.12 1.11 1.15 1.22 1.15 1.12 1.15 1.17 1.12 1.17 1.28 1.41 1.46 1.50 1.59 1.53 1.59 1.59 1.41
0.41 0.43 0.42 0.37 0.34 0.39 0.58 0.72 0.74 0.77 0.84 0.96 1.15 1.20 1.20 1.19 1.27 1.29 1.20 1.11 1.18 1.14 1.12 1.11 1.10 1.08 1.16 1.20 1.04 1.05 0.91 0.99 1.05 1.14 1.26 1.37 1.46 1.53 1.51 1.55 1.55 1.57 1.41
0.43 0.44 0.45 0.45 0.44 0.44 0.40 0.66 0.80 0.87 0.92 0.90 1.01 1.17 1.15 1.17 1.19 1.28 1.30 1.26 1.21 1.19 1.09 1.11 1.14 1.13 1.06 1.14 1.20 1.05 0.88 0.77 0.88 1.05 1.10 1.30 1.44 1.46 1.49 1.52 1.55 1.52 1.50
0.47 0.49 0.50 0.50 0.49 0.49 0.52 0.49 0.68 0.67 0.69 0.82 0.84 0.97 1.12 1.15 1.16 1.19 1.21 1.36 1.36 1.28 1.19 1.17 1.23 1.23 1.19 1.05 1.14 1.18 1.19 1.08 0.80 0.72 0.97 1.13 1.41 1.40 1.43 1.47 1.52 1.55 1.51
0.54 0.50 0.50 0.51 0.53 0.53 0.55 0.55 0.67 0.68 0.72 0.84 0.87 0.89 1.06 1.08 1.13 1.12 1.17 1.34 1.38 1.32 1.31 1.32 1.30 1.27 1.23 1.13 1.06 1.09 1.13 1.12 1.02 0.83 0.74 0.85 1.17 1.38 1.45 1.47 1.50 1.52 1.49
0.62 0.60 0.59 0.54 0.53 0.56 0.60 0.58 0.66 0.68 0.71 0.78 0.82 0.83 0.96 1.08 1.09 1.15 1.17 1.24 1.39 1.23 1.23 1.22 1.28 1.29 1.24 1.20 1.15 1.13 1.07 1.03 0.89 0.90 0.84 0.84 0.95 1.19 1.37 1.43 1.48 1.52 1.50

GFSSE_prec_pwat_114.txt.gz
Precipitable_Water
0.94 1.13 1.13 1.14 1.12 1.17 1.19 1.20 1.22 1.27 1.28 1.32 1.28 1.25 1.26 1.22 1.19 1.20 1.19 1.20 1.20 1.24 1.31 1.34 1.35 1.37 1.40 1.43 1.45 1.54 1.57 1.64 1.67 1.70 1.68 1.71 1.69 1.67 1.67 1.66 1.67 1.68 1.73
1.08 1.18 1.16 1.16 1.12 1.18 1.21 1.22 1.26 1.28 1.29 1.30 1.27 1.27 1.26 1.23 1.19 1.18 1.20 1.21 1.26 1.25 1.29 1.28 1.34 1.39 1.46 1.49 1.48 1.54 1.60 1.62 1.63 1.65 1.63 1.70 1.69 1.67 1.64 1.61 1.64 1.66 1.71
1.10 1.25 1.18 1.14 1.12 1.20 1.21 1.22 1.25 1.23 1.24 1.29 1.29 1.26 1.26 1.22 1.19 1.19 1.20 1.25 1.25 1.24 1.24 1.30 1.36 1.46 1.48 1.46 1.48 1.56 1.60 1.61 1.62 1.58 1.60 1.67 1.67 1.64 1.59 1.60 1.60 1.66 1.69
1.16 1.23 1.20 1.16 1.15 1.21 1.19 1.20 1.20 1.20 1.22 1.24 1.26 1.26 1.24 1.22 1.19 1.20 1.23 1.25 1.25 1.23 1.25 1.31 1.37 1.49 1.46 1.48 1.51 1.53 1.57 1.56 1.52 1.50 1.60 1.61 1.58 1.57 1.54 1.58 1.64 1.67 1.67
1.24 1.26 1.20 1.14 1.17 1.20 1.18 1.16 1.14 1.16 1.19 1.21 1.23 1.23 1.22 1.20 1.21 1.22 1.23 1.25 1.26 1.24 1.28 1.33 1.41 1.45 1.47 1.45 1.47 1.48 1.49 1.47 1.44 1.46 1.48 1.50 1.52 1.52 1.54 1.57 1.60 1.62 1.63
1.28 1.28 1.29 1.15 1.19 1.20 1.16 1.14 1.10 1.12 1.15 1.19 1.20 1.22 1.21 1.21 1.22 1.23 1.23 1.25 1.25 1.27 1.30 1.35 1.39 1.44 1.43 1.41 1.41 1.40 1.40 1.40 1.39 1.44 1.39 1.44 1.50 1.49 1.55 1.59 1.57 1.57 1.58
1.24 1.32 1.33 1.26 1.21 1.19 1.18 1.11 1.09 1.11 1.15 1.17 1.19 1.20 1.20 1.23 1.26 1.24 1.25 1.26 1.27 1.32 1.34 1.37 1.35 1.39 1.41 1.38 1.37 1.35 1.34 1.32 1.41 1.38 1.39 1.39 1.44 1.51 1.56 1.59 1.61 1.57 1.54
1.23 1.31 1.32 1.31 1.29 1.22 1.18 1.12 1.10 1.12 1.15 1.17 1.19 1.21 1.23 1.24 1.25 1.27 1.27 1.27 1.31 1.33 1.37 1.39 1.38 1.37 1.37 1.36 1.34 1.32 1.28 1.29 1.38 1.41 1.39 1.38 1.46 1.52 1.58 1.57 1.55 1.57 1.54
1.31 1.31 1.35 1.34 1.35 1.29 1.21 1.15 1.12 1.11 1.13 1.16 1.20 1.21 1.23 1.24 1.24 1.27 1.29 1.30 1.34 1.36 1.38 1.43 1.43 1.36 1.36 1.35 1.34 1.28 1.27 1.31 1.41 1.47 1.41 1.39 1.40 1.52 1.57 1.54 1.54 1.58 1.53
1.37 1.35 1.36 1.39 1.37 1.34 1.29 1.21 1.17 1.14 1.12 1.13 1.19 1.23 1.24 1.22 1.25 1.27 1.30 1.33 1.34 1.36 1.39 1.44 1.44 1.40 1.40 1.37 1.34 1.31 1.32 1.35 1.44 1.44 1.49 1.42 1.37 1.52 1.59 1.54 1.60 1.53 1.48
1.27 1.40 1.36 1.39 1.40 1.37 1.34 1.29 1.23 1.19 1.17 1.16 1.16 1.23 1.26 1.30 1.30 1.32 1.31 1.33 1.36 1.38 1.39 1.38 1.40 1.43 1.42 1.38 1.35 1.36 1.37 1.39 1.44 1.41 1.47 1.49 1.43 1.50 1.71 1.65 1.61 1.54 1.46
1.17 1.33 1.38 1.38 1.38 1.33 1.33 1.33 1.28 1.26 1.22 1.22 1.20 1.22 1.27 1.31 1.35 1.36 1.35 1.38 1.38 1.38 1.39 1.37 1.36 1.41 1.41 1.39 1.38 1.40 1.38 1.41 1.40 1.39 1.48 1.53 1.44 1.47 1.63 1.69 1.61 1.55 1.48
1.12 1.34 1.38 1.37 1.41 1.33 1.30 1.32 1.28 1.27 1.25 1.25 1.25 1.25 1.25 1.29 1.36 1.34 1.38 1.37 1.39 1.38 1.36 1.35 1.35 1.37 1.38 1.39 1.37 1.38 1.36 1.41 1.41 1.42 1.46 1.48 1.47 1.47 1.61 1.68 1.66 1.58 1.51
0.89 1.28 1.45 1.44 1.35 1.30 1.27 1.25 1.23 1.23 1.23 1.21 1.22 1.27 1.23 1.22 1.25 1.27 1.28 1.30 1.32 1.36 1.32 1.28 1.30 1.32 1.39 1.40 1.37 1.36 1.36 1.38 1.37 1.42 1.53 1.46 1.52 1.53 1.53 1.67 1.66 1.59 1.52
0.63 0.95 1.32 1.46 1.39 1.27 1.19 1.19 1.17 1.15 1.17 1.22 1.24 1.26 1.26 1.22 1.18 1.20 1.22 1.26 1.30 1.36 1.36 1.30 1.27 1.28 1.33 1.37 1.34 1.35 1.36 1.33 1.35 1.42 1.40 1.45 1.48 1.51 1.61 1.67 1.71 1.66 1.58
0.51 0.63 0.80 1.23 1.48 1.39 1.26 1.14 1.09 1.15 1.16 1.20 1.20 1.22 1.27 1.24 1.18 1.17 1.18 1.20 1.24 1.30 1.33 1.35 1.29 1.25 1.26 1.31 1.31 1.33 1.33 1.31 1.38 1.39 1.35 1.42 1.36 1.39 1.47 1.55 1.63 1.72 1.64
0.46 0.53 0.63 0.80 1.13 1.21 1.21 1.26 1.19 1.10 1.12 1.15 1.15 1.22 1.26 1.30 1.29 1.20 1.15 1.17 1.20 1.27 1.26 1.31 1.33 1.29 1.22 1.26 1.27 1.35 1.34 1.35 1.34 1.31 1.32 1.33 1.34 1.26 1.36 1.49 1.70 1.62 1.66
0.41 0.47 0.55 0.63 0.81 1.08 1.12 1.14 1.27 1.30 1.18 1.12 1.17 1.26 1.27 1.26 1.31 1.28 1.16 1.14 1.24 1.26 1.24 1.21 1.23 1.22 1.19 1.17 1.19 1.26 1.31 1.34 1.33 1.30 1.28 1.26 1.27 1.28 1.35 1.42 1.53 1.68 1.62
0.27 0.39 0.47 0.54 0.60 0.81 1.10 1.18 1.20 1.29 1.44 1.33 1.32 1.30 1.31 1.35 1.30 1.29 1.23 1.20 1.25 1.23 1.18 1.21 1.18 1.19 1.18 1.15 1.15 1.21 1.28 1.28 1.30 1.30 1.22 1.22 1.29 1.22 1.33 1.44 1.46 1.52 1.61
0.37 0.37 0.38 0.48 0.55 0.63 0.87 1.09 1.15 1.16 1.28 1.46 1.45 1.30 1.28 1.26 1.27 1.25 1.29 1.27 1.23 1.20 1.17 1.17 1.17 1.20 1.19 1.16 1.14 1.14 1.22 1.27 1.32 1.20 1.15 1.19 1.30 1.28 1.36 1.49 1.52 1.54 1.55
0.43 0.42 0.42 0.43 0.57 0.55 0.59 0.78 0.90 1.02 1.10 1.14 1.30 1.32 1.24 1.24 1.25 1.23 1.24 1.29 1.18 1.11 1.14 1.15 1.17 1.15 1.15 1.22 1.12 1.10 1.15 1.19 1.21 1.21 1.20 1.16 1.19 1.27 1.40 1.47 1.52 1.52 1.56
0.45 0.45 0.45 0.45 0.47 0.54 0.57 0.57 0.81 0.91 0.96 1.01 1.11 1.27 1.38 1.29 1.21 1.20 1.17 1.25 1.19 1.12 1.17 1.14 1.11 1.08 1.14 1.19 1.03 1.04 0.86 0.98 1.11 1.22 1.21 1.16 1.18 1.29 1.40 1.49 1.47 1.55 1.61
0.46 0.45 0.45 0.46 0.49 0.51 0.56 0.59 0.55 0.86 0.93 0.92 0.96 1.09 1.17 1.20 1.13 1.11 1.12 1.15 1.26 1.20 1.13 1.17 1.16 1.10 1.01 1.12 1.20 1.03 0.86 0.73 0.91 1.15 1.16 1.14 1.15 1.23 1.35 1.48 1.49 1.54 1.56
0.48 0.49 0.48 0.48 0.48 0.51 0.55 0.55 0.53 0.57 0.72 0.80 0.89 0.94 0.93 1.07 1.13 1.12 1.13 1.13 1.18 1.28 1.23 1.17 1.22 1.19 1.16 0.99 1.18 1.24 1.12 1.03 0.83 0.84 1.08 1.07 1.11 1.12 1.20 1.45 1.47 1.53 1.57
0.52 0.51 0.50 0.51 0.50 0.54 0.56 0.58 0.59 0.50 0.66 0.82 0.85 0.86 0.88 0.93 1.08 1.15 1.14 1.17 1.14 1.20 1.26 1.27 1.25 1.23 1.20 1.14 1.12 1.16 1.15 1.10 1.04 0.92 0.88 0.93 1.00 1.09 1.13 1.29 1.43 1.48 1.52
0.54 0.55 0.55 0.52 0.53 0.56 0.56 0.59 0.62 0.64 0.60 0.72 0.74 0.79 0.83 0.90 0.90 1.04 1.19 1.19 1.17 1.15 1.15 1.27 1.37 1.34 1.30 1.30 1.29 1.26 1.13 1.04 0.94 0.95 0.94 0.92 0.88 1.00 1.07 1.15 1.34 1.43 1.50

GFSSE_prec_pwat_117.txt.gz
Precipitable_Water
1.05 1.25 1.14 1.10 1.09 1.17 1.17 1.21 1.18 1.17 1.22 1.27 1.29 1.29 1.27 1.24 1.17 1.19 1.18 1.22 1.27 1.25 1.29 1.30 1.31 1.33 1.39 1.43 1.42 1.50 1.54 1.61 1.64 1.64 1.61 1.63 1.66 1.65 1.63 1.65 1.73 1.68 1.69
0.98 1.25 1.16 1.11 1.10 1.14 1.18 1.19 1.21 1.20 1.22 1.30 1.32 1.27 1.29 1.25 1.22 1.23 1.22 1.23 1.25 1.28 1.34 1.35 1.37 1.39 1.42 1.43 1.48 1.55 1.57 1.62 1.60 1.59 1.57 1.62 1.67 1.65 1.64 1.65 1.64 1.67 1.70
1.01 1.34 1.19 1.10 1.10 1.11 1.19 1.20 1.23 1.20 1.22 1.28 1.28 1.28 1.29 1.25 1.25 1.24 1.27 1.27 1.29 1.32 1.31 1.31 1.35 1.40 1.48 1.49 1.50 1.55 1.58 1.59 1.59 1.55 1.58 1.65 1.64 1.61 1.61 1.60 1.65 1.64 1.69
1.16 1.36 1.28 1.17 1.12 1.09 1.17 1.18 1.21 1.17 1.19 1.24 1.26 1.27 1.28 1.26 1.24 1.25 1.26 1.30 1.30 1.30 1.30 1.36 1.38 1.48 1.45 1.44 1.49 1.54 1.54 1.56 1.51 1.51 1.63 1.64 1.62 1.57 1.57 1.59 1.63 1.66 1.67
1.23 1.35 1.35 1.24 1.13 1.11 1.18 1.17 1.16 1.13 1.18 1.22 1.24 1.26 1.28 1.25 1.23 1.25 1.27 1.30 1.28 1.29 1.31 1.36 1.42 1.44 1.42 1.46 1.47 1.48 1.50 1.47 1.42 1.47 1.53 1.53 1.57 1.53 1.52 1.54 1.67 1.69 1.66
1.31 1.40 1.39 1.26 1.15 1.14 1.15 1.16 1.16 1.14 1.16 1.20 1.25 1.24 1.26 1.26 1.24 1.26 1.28 1.29 1.30 1.29 1.35 1.39 1.44 1.41 1.41 1.40 1.41 1.43 1.42 1.38 1.32 1.53 1.75 1.48 1.52 1.51 1.51 1.53 1.62 1.61 1.62
1.30 1.42 1.43 1.28 1.19 1.20 1.19 1.17 1.14 1.12 1.14 1.18 1.22 1.24 1.24 1.23 1.23 1.25 1.28 1.29 1.31 1.33 1.37 1.42 1.44 1.43 1.39 1.37 1.35 1.36 1.35 1.27 1.50 1.61 1.32 1.50 1.52 1.49 1.49 1.62 1.65 1.62 1.56
1.34 1.43 1.50 1.40 1.27 1.26 1.24 1.21 1.13 1.09 1.11 1.16 1.18 1.21 1.22 1.22 1.23 1.23 1.27 1.31 1.32 1.36 1.39 1.43 1.42 1.43 1.39 1.36 1.31 1.31 1.27 1.24 1.40 1.48 1.39 1.47 1.53 1.48 1.50 1.60 1.63 1.62 1.56
1.38 1.39 1.47 1.38 1.33 1.32 1.29 1.27 1.20 1.12 1.11 1.14 1.17 1.20 1.22 1.23 1.26 1.27 1.28 1.32 1.34 1.37 1.41 1.45 1.44 1.43 1.40 1.36 1.32 1.28 1.23 1.19 1.53 1.50 1.36 1.48 1.49 1.46 1.54 1.57 1.56 1.58 1.57
1.32 1.43 1.46 1.41 1.38 1.36 1.35 1.29 1.24 1.19 1.14 1.14 1.17 1.19 1.24 1.27 1.27 1.28 1.31 1.32 1.36 1.38 1.39 1.44 1.48 1.47 1.42 1.39 1.34 1.28 1.25 1.24 1.39 1.55 1.34 1.44 1.46 1.45 1.55 1.56 1.55 1.57 1.56
1.14 1.39 1.52 1.38 1.44 1.44 1.41 1.36 1.29 1.25 1.20 1.19 1.21 1.23 1.27 1.32 1.33 1.34 1.31 1.31 1.35 1.37 1.38 1.40 1.42 1.43 1.43 1.41 1.38 1.33 1.32 1.29 1.38 1.45 1.40 1.44 1.45 1.48 1.58 1.63 1.57 1.62 1.52
0.90 1.23 1.45 1.49 1.43 1.54 1.49 1.44 1.36 1.32 1.23 1.19 1.20 1.24 1.28 1.29 1.32 1.32 1.32 1.32 1.35 1.40 1.47 1.44 1.39 1.37 1.40 1.42 1.38 1.36 1.34 1.38 1.37 1.40 1.51 1.51 1.42 1.43 1.55 1.58 1.64 1.64 1.54
0.75 1.22 1.43 1.53 1.50 1.50 1.54 1.51 1.39 1.37 1.32 1.26 1.22 1.23 1.26 1.29 1.33 1.31 1.37 1.36 1.39 1.39 1.43 1.42 1.37 1.36 1.34 1.37 1.36 1.31 1.31 1.37 1.39 1.40 1.49 1.50 1.46 1.52 1.53 1.59 1.64 1.64 1.59
0.59 1.07 1.36 1.53 1.58 1.52 1.54 1.46 1.37 1.35 1.36 1.31 1.27 1.26 1.23 1.27 1.33 1.33 1.33 1.36 1.30 1.36 1.33 1.34 1.32 1.30 1.31 1.37 1.35 1.33 1.31 1.36 1.37 1.43 1.46 1.48 1.42 1.47 1.53 1.57 1.70 1.68 1.64
0.53 0.70 1.25 1.48 1.57 1.58 1.54 1.54 1.38 1.30 1.23 1.30 1.33 1.30 1.29 1.23 1.26 1.37 1.33 1.33 1.29 1.32 1.32 1.35 1.29 1.31 1.30 1.30 1.34 1.27 1.29 1.33 1.35 1.35 1.44 1.42 1.34 1.42 1.46 1.54 1.61 1.65 1.66
0.49 0.53 0.66 1.02 1.52 1.60 1.59 1.53 1.43 1.33 1.30 1.28 1.23 1.27 1.34 1.34 1.28 1.32 1.34 1.36 1.36 1.28 1.29 1.34 1.32 1.28 1.32 1.32 1.30 1.27 1.24 1.27 1.31 1.36 1.48 1.47 1.33 1.38 1.39 1.40 1.57 1.62 1.59
0.39 0.47 0.55 0.65 0.83 1.41 1.62 1.61 1.49 1.39 1.35 1.29 1.26 1.32 1.26 1.34 1.30 1.26 1.27 1.33 1.34 1.39 1.27 1.28 1.35 1.33 1.32 1.33 1.28 1.26 1.26 1.28 1.29 1.33 1.36 1.36 1.39 1.32 1.35 1.36 1.33 1.51 1.66
0.31 0.39 0.48 0.56 0.65 0.86 1.20 1.47 1.52 1.42 1.42 1.31 1.32 1.25 1.24 1.26 1.31 1.31 1.21 1.22 1.34 1.38 1.37 1.29 1.24 1.24 1.23 1.26 1.24 1.25 1.22 1.26 1.25 1.28 1.30 1.28 1.36 1.35 1.29 1.28 1.32 1.39 1.39
0.34 0.42 0.50 0.60 0.61 0.65 0.84 1.16 1.36 1.36 1.38 1.41 1.32 1.30 1.23 1.22 1.26 1.29 1.25 1.23 1.25 1.34 1.38 1.28 1.23 1.19 1.16 1.20 1.22 1.24 1.24 1.23 1.23 1.26 1.27 1.24 1.27 1.32 1.31 1.29 1.29 1.29 1.40
0.54 0.54 0.54 0.57 0.68 0.71 0.66 0.79 1.13 1.29 1.28 1.38 1.43 1.34 1.28 1.29 1.28 1.34 1.34 1.29 1.24 1.20 1.26 1.30 1.21 1.23 1.19 1.20 1.16 1.18 1.22 1.24 1.26 1.24 1.24 1.25 1.24 1.22 1.24 1.37 1.29 1.32 1.44
0.50 0.48 0.48 0.52 0.55 0.59 0.65 0.56 0.70 1.05 1.19 1.27 1.30 1.44 1.45 1.37 1.40 1.47 1.37 1.36 1.24 1.14 1.13 1.22 1.22 1.19 1.12 1.26 1.15 1.14 1.17 1.22 1.23 1.24 1.24 1.22 1.22 1.27 1.24 1.27 1.33 1.35 1.43
0.49 0.50 0.51 0.48 0.49 0.53 0.55 0.62 0.62 0.71 1.01 1.18 1.27 1.30 1.48 1.55 1.52 1.50 1.35 1.28 1.27 1.16 1.19 1.22 1.18 1.17 1.18 1.22 1.07 1.06 0.90 1.02 1.16 1.21 1.18 1.17 1.23 1.28 1.20 1.26 1.31 1.36 1.50
0.47 0.50 0.51 0.53 0.51 0.51 0.54 0.56 0.58 0.64 0.69 0.96 1.08 1.16 1.26 1.40 1.51 1.51 1.34 1.23 1.24 1.16 1.11 1.25 1.19 1.18 1.10 1.19 1.20 1.00 0.83 0.75 0.97 1.14 1.15 1.19 1.22 1.23 1.22 1.20 1.24 1.38 1.53
0.46 0.51 0.54 0.55 0.56 0.54 0.55 0.53 0.54 0.53 0.54 0.64 0.92 1.07 1.12 1.28 1.35 1.38 1.49 1.42 1.25 1.16 1.11 1.12 1.30 1.17 1.21 1.08 1.17 1.15 1.08 0.99 0.93 0.91 1.15 1.16 1.20 1.19 1.22 1.17 1.17 1.27 1.46
0.47 0.48 0.51 0.55 0.56 0.58 0.56 0.54 0.53 0.55 0.59 0.64 0.75 1.03 0.98 1.10 1.27 1.24 1.32 1.45 1.32 1.18 1.11 1.09 1.19 1.25 1.23 1.18 1.12 1.09 1.12 1.08 1.12 1.03 0.93 1.06 1.13 1.15 1.20 1.15 1.19 1.15 1.28
0.51 0.51 0.49 0.52 0.54 0.57 0.58 0.56 0.55 0.54 0.56 0.57 0.64 0.81 1.02 1.03 1.10 1.16 1.20 1.22 1.31 1.21 1.12 1.12 1.14 1.20 1.29 1.29 1.26 1.16 1.08 1.01 1.05 1.07 1.01 1.01 1.01 1.10 1.13 1.19 1.19 1.13 1.13

GFSSE_prec_pwat_120.txt.gz
Precipitable_Water
1.25 1.26 1.14 1.00 0.98 1.07 1.12 1.17 1.16 1.12 1.11 1.14 1.20 1.20 1.23 1.19 1.09 1.12 1.12 1.10 1.17 1.27 1.34 1.31 1.29 1.31 1.32 1.33 1.36 1.39 1.46 1.49 1.56 1.58 1.57 1.57 1.57 1.55 1.57 1.65 1.73 1.67 1.66
1.11 1.17 1.13 1.04 1.00 1.03 1.10 1.15 1.12 1.09 1.08 1.11 1.17 1.22 1.22 1.19 1.12 1.13 1.15 1.20 1.20 1.24 1.28 1.29 1.33 1.36 1.40 1.41 1.42 1.48 1.48 1.54 1.52 1.51 1.52 1.55 1.57 1.58 1.62 1.66 1.63 1.66 1.69
1.07 1.19 1.21 1.12 1.05 1.05 1.11 1.13 1.11 1.10 1.08 1.11 1.16 1.18 1.23 1.18 1.15 1.15 1.16 1.21 1.24 1.29 1.34 1.35 1.35 1.40 1.45 1.45 1.49 1.49 1.52 1.53 1.50 1.48 1.54 1.57 1.56 1.59 1.61 1.59 1.62 1.65 1.68
1.16 1.34 1.29 1.19 1.11 1.08 1.11 1.12 1.10 1.10 1.11 1.16 1.19 1.19 1.22 1.19 1.17 1.17 1.21 1.23 1.29 1.33 1.31 1.34 1.35 1.43 1.49 1.45 1.45 1.50 1.49 1.51 1.46 1.48 1.54 1.58 1.55 1.57 1.55 1.57 1.61 1.68 1.68
1.23 1.45 1.39 1.27 1.19 1.15 1.15 1.15 1.14 1.11 1.10 1.14 1.15 1.19 1.23 1.23 1.19 1.18 1.21 1.26 1.28 1.29 1.29 1.37 1.42 1.50 1.43 1.43 1.45 1.45 1.45 1.42 1.37 1.39 1.46 1.49 1.49 1.54 1.53 1.50 1.62 1.74 1.73
1.27 1.43 1.39 1.31 1.23 1.17 1.20 1.21 1.20 1.13 1.13 1.16 1.17 1.17 1.22 1.23 1.22 1.22 1.22 1.26 1.28 1.28 1.29 1.37 1.45 1.45 1.45 1.43 1.42 1.40 1.37 1.30 1.29 1.60 1.69 1.48 1.44 1.54 1.48 1.50 1.60 1.65 1.67
1.31 1.48 1.51 1.38 1.26 1.19 1.23 1.24 1.24 1.16 1.14 1.15 1.17 1.18 1.21 1.23 1.23 1.24 1.27 1.30 1.30 1.30 1.33 1.36 1.43 1.44 1.43 1.41 1.39 1.37 1.29 1.27 1.43 2.00 1.53 1.39 1.42 1.53 1.49 1.52 1.60 1.66 1.64
1.27 1.48 1.55 1.45 1.31 1.22 1.24 1.28 1.27 1.21 1.18 1.19 1.20 1.20 1.20 1.22 1.23 1.24 1.28 1.31 1.33 1.31 1.34 1.36 1.40 1.44 1.44 1.41 1.36 1.33 1.25 1.29 1.39 1.53 1.37 1.32 1.51 1.50 1.48 1.52 1.61 1.68 1.61
1.18 1.45 1.57 1.53 1.41 1.26 1.27 1.30 1.30 1.23 1.19 1.20 1.21 1.20 1.21 1.22 1.22 1.24 1.29 1.31 1.31 1.32 1.35 1.38 1.38 1.41 1.42 1.41 1.34 1.29 1.21 1.27 1.39 1.62 1.41 1.27 1.43 1.47 1.48 1.55 1.57 1.60 1.60
1.08 1.30 1.49 1.48 1.42 1.28 1.26 1.30 1.31 1.26 1.18 1.18 1.19 1.20 1.22 1.23 1.23 1.25 1.28 1.30 1.33 1.34 1.35 1.40 1.40 1.41 1.39 1.37 1.34 1.29 1.18 1.17 1.40 1.60 1.64 1.36 1.36 1.43 1.47 1.55 1.57 1.55 1.56
1.03 1.13 1.40 1.50 1.40 1.35 1.31 1.30 1.30 1.28 1.24 1.22 1.21 1.22 1.24 1.27 1.27 1.28 1.27 1.27 1.30 1.36 1.39 1.40 1.41 1.42 1.39 1.36 1.34 1.27 1.19 1.16 1.35 1.51 1.62 1.55 1.35 1.38 1.46 1.53 1.59 1.56 1.54
0.64 1.08 1.24 1.44 1.46 1.43 1.38 1.38 1.32 1.30 1.23 1.24 1.22 1.22 1.23 1.30 1.32 1.31 1.29 1.28 1.28 1.34 1.36 1.40 1.41 1.43 1.40 1.37 1.34 1.28 1.20 1.16 1.31 1.35 1.42 1.63 1.45 1.37 1.43 1.55 1.62 1.58 1.60
0.57 1.03 1.31 1.30 1.52 1.55 1.46 1.47 1.42 1.34 1.26 1.23 1.17 1.19 1.21 1.27 1.34 1.28 1.28 1.29 1.32 1.34 1.37 1.40 1.37 1.36 1.32 1.37 1.32 1.25 1.19 1.28 1.32 1.33 1.45 1.44 1.47 1.42 1.44 1.51 1.58 1.61 1.61
0.55 0.66 1.36 1.47 1.36 1.54 1.66 1.68 1.57 1.44 1.34 1.27 1.24 1.21 1.16 1.14 1.21 1.26 1.25 1.28 1.30 1.34 1.31 1.36 1.32 1.29 1.29 1.31 1.37 1.36 1.23 1.22 1.34 1.33 1.48 1.50 1.47 1.45 1.43 1.47 1.54 1.63 1.67
0.50 0.58 0.96 1.37 1.50 1.54 1.61 1.65 1.67 1.65 1.47 1.36 1.31 1.29 1.26 1.16 1.12 1.26 1.21 1.30 1.31 1.35 1.29 1.35 1.33 1.27 1.27 1.29 1.34 1.33 1.24 1.23 1.29 1.33 1.44 1.43 1.38 1.36 1.33 1.43 1.45 1.51 1.63
0.48 0.51 0.59 0.71 1.24 1.51 1.59 1.68 1.68 1.69 1.65 1.56 1.46 1.32 1.28 1.29 1.22 1.23 1.20 1.35 1.24 1.27 1.27 1.28 1.36 1.31 1.27 1.30 1.28 1.30 1.27 1.25 1.27 1.33 1.34 1.32 1.36 1.33 1.32 1.38 1.43 1.43 1.52
0.34 0.41 0.52 0.56 0.61 0.86 1.37 1.56 1.65 1.72 1.70 1.62 1.54 1.52 1.40 1.33 1.27 1.32 1.25 1.27 1.27 1.36 1.32 1.28 1.35 1.38 1.29 1.27 1.24 1.30 1.31 1.27 1.27 1.30 1.31 1.28 1.33 1.33 1.29 1.28 1.33 1.34 1.41
0.44 0.45 0.54 0.62 0.63 0.65 0.73 1.18 1.54 1.63 1.70 1.60 1.55 1.54 1.43 1.38 1.34 1.34 1.29 1.30 1.30 1.40 1.38 1.30 1.24 1.32 1.30 1.26 1.23 1.24 1.27 1.26 1.25 1.25 1.27 1.31 1.34 1.31 1.25 1.27 1.27 1.29 1.29
0.54 0.54 0.54 0.59 0.63 0.69 0.74 0.79 1.05 1.49 1.59 1.64 1.55 1.56 1.47 1.36 1.33 1.36 1.25 1.25 1.30 1.34 1.28 1.31 1.22 1.30 1.23 1.22 1.22 1.24 1.23 1.25 1.23 1.22 1.22 1.24 1.32 1.32 1.25 1.22 1.22 1.22 1.29
0.55 0.57 0.56 0.57 0.59 0.63 0.70 0.74 0.75 0.98 1.36 1.46 1.50 1.49 1.47 1.40 1.30 1.30 1.34 1.27 1.25 1.28 1.28 1.30 1.20 1.24 1.23 1.20 1.23 1.22 1.26 1.24 1.22 1.22 1.18 1.26 1.28 1.29 1.29 1.27 1.25 1.22 1.25
0.53 0.52 0.53 0.51 0.53 0.56 0.55 0.58 0.68 0.67 0.92 1.35 1.37 1.44 1.62 1.45 1.37 1.28 1.27 1.28 1.26 1.19 1.22 1.28 1.21 1.13 1.17 1.23 1.18 1.21 1.21 1.24 1.22 1.20 1.22 1.22 1.21 1.26 1.29 1.26 1.27 1.20 1.16
0.48 0.48 0.48 0.51 0.52 0.54 0.53 0.54 0.58 0.64 0.72 0.94 1.27 1.29 1.35 1.47 1.46 1.42 1.34 1.27 1.23 1.24 1.25 1.30 1.24 1.09 1.15 1.25 1.07 1.09 1.00 1.12 1.16 1.20 1.22 1.25 1.26 1.29 1.26 1.30 1.32 1.26 1.22
0.47 0.48 0.49 0.52 0.52 0.53 0.55 0.55 0.52 0.55 0.60 0.64 0.85 1.05 1.32 1.27 1.43 1.52 1.52 1.41 1.31 1.34 1.25 1.22 1.20 1.09 1.01 1.18 1.21 1.04 0.93 0.82 0.97 1.15 1.14 1.21 1.25 1.25 1.29 1.29 1.30 1.30 1.25
0.46 0.50 0.51 0.51 0.51 0.53 0.55 0.54 0.54 0.49 0.46 0.57 0.69 0.88 1.23 1.27 1.27 1.39 1.50 1.60 1.54 1.52 1.41 1.23 1.15 1.07 1.19 1.04 1.21 1.20 1.16 1.07 0.86 0.82 1.09 1.18 1.25 1.26 1.27 1.31 1.29 1.30 1.31
0.45 0.47 0.49 0.51 0.51 0.53 0.55 0.57 0.55 0.52 0.51 0.53 0.60 0.72 0.86 1.15 1.19 1.26 1.37 1.48 1.58 1.59 1.64 1.30 1.20 1.08 1.10 1.11 1.14 1.10 1.10 1.12 1.14 0.96 0.93 1.05 1.26 1.26 1.30 1.31 1.29 1.27 1.29
0.46 0.47 0.47 0.47 0.49 0.52 0.52 0.54 0.55 0.53 0.52 0.49 0.49 0.55 0.71 0.89 1.03 1.15 1.19 1.28 1.46 1.48 1.48 1.83 1.32 1.25 1.08 1.07 1.14 1.18 1.08 1.03 1.03 1.01 0.95 1.00 1.04 1.16 1.27 1.28 1.29 1.22 1.29

GFSSE_prec_pwat_123.txt.gz
Precipitable_Water
1.30 1.43 1.24 1.06 0.97 0.99 1.02 1.04 1.09 1.08 1.05 1.06 1.09 1.14 1.18 1.12 1.01 1.02 1.02 1.07 1.12 1.20 1.22 1.12 1.15 1.25 1.31 1.33 1.36 1.45 1.50 1.50 1.55 1.58 1.55 1.57 1.56 1.57 1.63 1.69 1.67 1.64 1.63
1.24 1.23 1.26 1.16 1.00 1.01 1.08 1.09 1.12 1.07 1.05 1.08 1.11 1.16 1.20 1.14 1.05 1.04 1.02 1.08 1.14 1.24 1.27 1.24 1.25 1.28 1.30 1.34 1.39 1.49 1.55 1.57 1.55 1.54 1.56 1.55 1.56 1.61 1.68 1.64 1.61 1.64 1.65
1.23 1.22 1.22 1.20 1.08 1.02 1.08 1.12 1.13 1.09 1.06 1.09 1.11 1.15 1.19 1.16 1.11 1.11 1.10 1.11 1.13 1.18 1.22 1.24 1.28 1.36 1.39 1.35 1.46 1.50 1.54 1.58 1.57 1.55 1.54 1.53 1.61 1.63 1.67 1.62 1.60 1.64 1.68
1.24 1.32 1.29 1.28 1.18 1.08 1.08 1.15 1.15 1.13 1.09 1.11 1.14 1.15 1.20 1.16 1.12 1.13 1.16 1.17 1.19 1.21 1.23 1.28 1.31 1.37 1.44 1.44 1.47 1.50 1.53 1.56 1.53 1.58 1.59 1.56 1.61 1.61 1.60 1.59 1.60 1.65 1.67
1.07 1.32 1.41 1.39 1.27 1.18 1.12 1.16 1.17 1.15 1.10 1.13 1.15 1.15 1.20 1.18 1.15 1.15 1.15 1.20 1.25 1.24 1.23 1.26 1.30 1.39 1.39 1.41 1.46 1.48 1.52 1.48 1.50 1.56 1.59 1.58 1.52 1.57 1.58 1.54 1.62 1.67 1.66
1.10 1.31 1.43 1.37 1.32 1.25 1.17 1.20 1.22 1.21 1.14 1.17 1.17 1.15 1.19 1.18 1.15 1.14 1.18 1.23 1.24 1.22 1.23 1.32 1.38 1.37 1.34 1.38 1.44 1.45 1.46 1.45 1.48 1.50 1.56 1.62 1.47 1.56 1.54 1.55 1.60 1.65 1.65
1.17 1.35 1.42 1.36 1.31 1.27 1.18 1.21 1.26 1.24 1.17 1.17 1.16 1.14 1.16 1.18 1.17 1.17 1.19 1.23 1.26 1.27 1.27 1.32 1.39 1.34 1.33 1.33 1.38 1.43 1.42 1.40 1.39 1.53 1.47 1.52 1.45 1.53 1.53 1.53 1.58 1.61 1.62
1.15 1.32 1.40 1.47 1.33 1.27 1.20 1.20 1.25 1.25 1.20 1.18 1.20 1.19 1.19 1.19 1.18 1.18 1.20 1.23 1.26 1.29 1.32 1.34 1.34 1.33 1.33 1.32 1.33 1.35 1.39 1.43 1.43 1.31 1.47 1.50 1.44 1.51 1.54 1.53 1.59 1.63 1.64
1.10 1.21 1.34 1.46 1.48 1.35 1.26 1.23 1.26 1.26 1.21 1.18 1.19 1.20 1.19 1.19 1.19 1.18 1.23 1.26 1.26 1.28 1.34 1.38 1.40 1.38 1.33 1.31 1.31 1.30 1.34 1.42 1.39 1.57 1.67 1.54 1.41 1.45 1.50 1.55 1.61 1.62 1.62
1.05 1.14 1.19 1.33 1.48 1.44 1.32 1.25 1.27 1.28 1.24 1.21 1.17 1.17 1.15 1.19 1.18 1.17 1.21 1.26 1.28 1.30 1.33 1.35 1.35 1.40 1.38 1.30 1.29 1.27 1.27 1.33 1.40 1.53 1.62 1.51 1.44 1.43 1.46 1.51 1.60 1.59 1.54
0.99 1.10 1.16 1.24 1.37 1.46 1.38 1.30 1.29 1.29 1.26 1.21 1.19 1.17 1.17 1.17 1.17 1.14 1.17 1.26 1.29 1.30 1.32 1.33 1.33 1.34 1.40 1.35 1.29 1.26 1.22 1.22 1.33 1.40 1.36 1.46 1.44 1.45 1.43 1.52 1.54 1.56 1.54
0.70 0.96 1.19 1.35 1.40 1.45 1.42 1.36 1.31 1.31 1.30 1.25 1.22 1.21 1.18 1.15 1.15 1.14 1.16 1.22 1.26 1.30 1.33 1.33 1.34 1.36 1.37 1.36 1.36 1.29 1.16 1.23 1.36 1.33 1.35 1.41 1.47 1.45 1.37 1.47 1.55 1.58 1.57
0.59 0.88 1.08 1.29 1.47 1.45 1.51 1.45 1.38 1.34 1.32 1.29 1.27 1.24 1.23 1.18 1.18 1.17 1.15 1.16 1.23 1.25 1.29 1.29 1.32 1.30 1.30 1.31 1.33 1.32 1.17 1.14 1.34 1.35 1.35 1.34 1.38 1.43 1.47 1.41 1.46 1.56 1.58
0.49 0.61 0.95 1.16 1.41 1.52 1.54 1.65 1.54 1.41 1.39 1.35 1.33 1.30 1.25 1.20 1.20 1.18 1.15 1.10 1.12 1.19 1.19 1.23 1.26 1.27 1.20 1.23 1.27 1.30 1.21 1.13 1.28 1.33 1.33 1.37 1.44 1.45 1.44 1.42 1.44 1.48 1.56
0.44 0.57 0.79 0.90 0.97 1.27 1.49 1.63 1.76 1.67 1.56 1.51 1.45 1.41 1.32 1.26 1.19 1.22 1.18 1.16 1.15 1.19 1.21 1.17 1.20 1.23 1.18 1.13 1.22 1.36 1.41 1.25 1.28 1.31 1.31 1.38 1.31 1.42 1.37 1.33 1.34 1.38 1.40
0.50 0.58 0.70 0.80 1.02 1.21 1.21 1.53 1.67 1.76 1.79 1.70 1.58 1.45 1.41 1.27 1.22 1.22 1.20 1.18 1.18 1.27 1.22 1.20 1.16 1.18 1.15 1.09 1.10 1.26 1.30 1.32 1.30 1.30 1.34 1.35 1.33 1.32 1.32 1.33 1.34 1.36 1.37
0.50 0.55 0.60 0.68 0.72 0.78 0.85 1.07 1.48 1.63 1.73 1.82 1.85 1.66 1.43 1.36 1.25 1.24 1.26 1.20 1.20 1.24 1.23 1.21 1.20 1.22 1.20 1.21 1.08 1.19 1.29 1.32 1.29 1.31 1.31 1.32 1.32 1.32 1.30 1.28 1.29 1.35 1.35
0.46 0.47 0.53 0.60 0.65 0.65 0.67 0.76 0.89 1.17 1.47 1.68 1.83 1.79 1.70 1.52 1.42 1.28 1.28 1.23 1.28 1.36 1.25 1.25 1.18 1.13 1.15 1.16 1.12 1.09 1.24 1.32 1.30 1.28 1.28 1.27 1.26 1.29 1.30 1.29 1.27 1.24 1.25
0.46 0.48 0.50 0.53 0.56 0.61 0.62 0.67 0.74 0.84 1.08 1.41 1.64 1.71 1.74 1.81 1.65 1.49 1.34 1.33 1.33 1.37 1.28 1.30 1.26 1.19 1.10 1.10 1.12 1.09 1.15 1.27 1.26 1.28 1.25 1.26 1.27 1.25 1.26 1.29 1.29 1.31 1.27
0.48 0.49 0.48 0.48 0.50 0.53 0.56 0.59 0.63 0.70 0.84 1.05 1.39 1.57 1.67 1.68 1.66 1.63 1.46 1.42 1.44 1.38 1.28 1.30 1.23 1.28 1.17 1.10 1.09 1.07 1.12 1.20 1.29 1.25 1.26 1.26 1.26 1.24 1.24 1.26 1.29 1.31 1.31
0.47 0.46 0.46 0.46 0.48 0.48 0.48 0.46 0.48 0.50 0.63 0.81 0.94 1.24 1.53 1.53 1.61 1.71 1.41 1.46 1.48 1.42 1.32 1.28 1.25 1.18 1.16 1.23 1.10 1.08 1.11 1.15 1.21 1.27 1.26 1.23 1.21 1.21 1.24 1.23 1.25 1.29 1.31
0.43 0.44 0.44 0.43 0.43 0.44 0.46 0.46 0.47 0.46 0.51 0.63 0.81 0.92 1.15 1.34 1.49 1.44 1.43 1.48 1.50 1.38 1.34 1.35 1.22 1.15 1.17 1.25 1.02 0.99 0.86 1.03 1.15 1.22 1.25 1.23 1.22 1.23 1.20 1.24 1.26 1.25 1.27
0.41 0.42 0.42 0.43 0.44 0.45 0.47 0.48 0.47 0.49 0.48 0.47 0.59 0.75 0.92 1.09 1.31 1.45 1.49 1.51 1.38 1.51 1.27 1.28 1.31 1.17 1.07 1.20 1.16 0.95 0.82 0.71 0.89 1.11 1.18 1.23 1.21 1.23 1.24 1.28 1.27 1.28 1.28
0.42 0.44 0.45 0.45 0.46 0.47 0.48 0.47 0.46 0.43 0.41 0.45 0.46 0.59 0.73 0.92 1.03 1.22 1.41 1.43 1.35 1.54 1.39 1.25 1.32 1.27 1.25 1.08 1.20 1.10 1.00 0.87 0.75 0.74 1.08 1.14 1.18 1.15 1.22 1.30 1.30 1.33 1.33
0.48 0.47 0.47 0.46 0.45 0.45 0.47 0.49 0.47 0.45 0.47 0.47 0.47 0.44 0.56 0.73 0.89 1.00 1.20 1.35 1.50 1.50 1.55 1.46 1.25 1.30 1.36 1.23 1.07 0.99 1.03 0.98 0.95 0.83 0.75 0.92 1.15 1.18 1.27 1.31 1.32 1.33 1.36
0.45 0.44 0.43 0.42 0.42 0.45 0.46 0.47 0.47 0.47 0.46 0.45 0.45 0.44 0.44 0.51 0.75 0.89 0.98 1.15 1.32 1.45 1.46 1.44 1.54 1.46 1.38 1.45 1.26 1.14 1.03 0.93 0.86 0.90 0.82 0.91 0.94 1.07 1.23 1.30 1.29 1.31 1.37

GFSSE_prec_pwat_126.txt.gz
Precipitable_Water
1.25 1.39 1.35 1.16 1.08 1.05 1.06 1.04 1.05 1.05 1.02 1.02 1.06 1.12 1.15 1.11 1.01 1.03 1.05 1.07 1.08 1.12 1.16 1.17 1.19 1.29 1.40 1.35 1.37 1.42 1.48 1.53 1.54 1.56 1.57 1.58 1.56 1.55 1.60 1.63 1.65 1.63 1.64
1.21 1.29 1.31 1.29 1.14 1.04 1.05 1.08 1.10 1.11 1.05 1.05 1.08 1.13 1.16 1.11 1.04 1.05 1.07 1.13 1.16 1.17 1.14 1.14 1.22 1.30 1.32 1.35 1.44 1.46 1.49 1.50 1.53 1.53 1.53 1.51 1.55 1.62 1.65 1.62 1.61 1.62 1.64
1.17 1.29 1.26 1.22 1.21 1.09 1.04 1.09 1.13 1.12 1.09 1.07 1.07 1.13 1.16 1.14 1.06 1.07 1.10 1.16 1.19 1.23 1.26 1.22 1.23 1.29 1.36 1.38 1.46 1.50 1.50 1.50 1.49 1.46 1.49 1.50 1.56 1.64 1.63 1.59 1.57 1.63 1.67
1.16 1.24 1.30 1.26 1.22 1.19 1.09 1.08 1.10 1.13 1.12 1.10 1.08 1.12 1.15 1.14 1.10 1.09 1.10 1.13 1.17 1.25 1.26 1.25 1.29 1.37 1.39 1.42 1.46 1.49 1.50 1.52 1.47 1.47 1.47 1.52 1.61 1.65 1.62 1.57 1.60 1.67 1.66
1.05 1.14 1.30 1.37 1.31 1.25 1.17 1.11 1.10 1.13 1.14 1.12 1.10 1.14 1.18 1.15 1.10 1.10 1.12 1.16 1.21 1.25 1.28 1.31 1.32 1.38 1.43 1.41 1.46 1.47 1.49 1.51 1.50 1.50 1.51 1.49 1.55 1.59 1.60 1.57 1.58 1.68 1.68
1.07 1.27 1.33 1.42 1.40 1.36 1.24 1.15 1.12 1.14 1.16 1.14 1.13 1.14 1.16 1.15 1.10 1.09 1.10 1.15 1.20 1.20 1.24 1.30 1.35 1.42 1.35 1.37 1.40 1.39 1.42 1.46 1.43 1.47 1.50 1.51 1.49 1.57 1.55 1.52 1.58 1.65 1.67
1.06 1.22 1.32 1.39 1.44 1.42 1.31 1.19 1.17 1.17 1.17 1.15 1.15 1.12 1.15 1.14 1.10 1.08 1.09 1.13 1.17 1.18 1.23 1.33 1.40 1.38 1.36 1.38 1.37 1.34 1.37 1.37 1.35 1.56 1.58 1.56 1.43 1.52 1.51 1.54 1.56 1.66 1.62
1.00 1.13 1.21 1.27 1.43 1.43 1.38 1.26 1.22 1.20 1.19 1.17 1.14 1.11 1.13 1.13 1.09 1.08 1.09 1.11 1.12 1.18 1.23 1.29 1.34 1.34 1.36 1.36 1.38 1.35 1.34 1.34 1.36 1.44 1.40 1.45 1.45 1.56 1.53 1.53 1.53 1.58 1.62
1.03 1.06 1.16 1.16 1.29 1.48 1.44 1.34 1.29 1.25 1.20 1.20 1.16 1.11 1.12 1.12 1.10 1.09 1.10 1.12 1.13 1.15 1.20 1.28 1.31 1.33 1.33 1.33 1.36 1.37 1.33 1.31 1.26 1.24 1.41 1.48 1.46 1.48 1.53 1.52 1.54 1.56 1.61
1.06 1.09 1.04 1.07 1.18 1.35 1.51 1.42 1.32 1.31 1.26 1.23 1.23 1.18 1.14 1.14 1.11 1.10 1.10 1.11 1.12 1.16 1.19 1.25 1.29 1.33 1.33 1.29 1.30 1.33 1.30 1.33 1.28 1.40 1.38 1.37 1.32 1.41 1.44 1.51 1.59 1.57 1.54
0.97 1.07 1.18 1.18 1.24 1.27 1.42 1.50 1.40 1.34 1.33 1.30 1.28 1.25 1.24 1.19 1.16 1.12 1.10 1.12 1.12 1.13 1.18 1.24 1.26 1.30 1.33 1.30 1.29 1.28 1.27 1.30 1.33 1.35 1.32 1.36 1.31 1.42 1.42 1.43 1.53 1.55 1.50
0.59 0.95 1.17 1.27 1.27 1.30 1.33 1.46 1.48 1.40 1.35 1.33 1.32 1.32 1.26 1.23 1.19 1.15 1.12 1.14 1.16 1.16 1.17 1.22 1.23 1.26 1.32 1.33 1.27 1.26 1.20 1.23 1.28 1.35 1.37 1.37 1.34 1.39 1.33 1.36 1.49 1.51 1.52
0.52 0.79 0.99 1.19 1.31 1.33 1.36 1.37 1.48 1.44 1.40 1.37 1.34 1.30 1.29 1.24 1.25 1.20 1.16 1.15 1.19 1.22 1.21 1.21 1.21 1.24 1.27 1.29 1.25 1.25 1.16 1.14 1.28 1.34 1.32 1.39 1.38 1.42 1.43 1.36 1.41 1.52 1.57
0.52 0.68 1.07 1.25 1.38 1.43 1.41 1.51 1.52 1.51 1.44 1.38 1.39 1.36 1.31 1.25 1.20 1.20 1.15 1.13 1.15 1.19 1.18 1.18 1.15 1.18 1.19 1.24 1.21 1.20 1.17 1.09 1.21 1.31 1.37 1.39 1.37 1.45 1.51 1.50 1.42 1.42 1.44
0.46 0.65 0.79 0.87 0.99 1.14 1.24 1.40 1.64 1.68 1.67 1.59 1.55 1.53 1.46 1.34 1.24 1.24 1.23 1.21 1.19 1.18 1.16 1.15 1.15 1.16 1.19 1.17 1.18 1.18 1.16 1.12 1.13 1.26 1.33 1.38 1.43 1.36 1.38 1.43 1.37 1.36 1.35
0.45 0.51 0.65 0.68 0.72 0.81 0.89 0.99 1.19 1.42 1.66 1.81 1.74 1.66 1.67 1.57 1.44 1.32 1.23 1.25 1.24 1.21 1.17 1.14 1.14 1.13 1.16 1.20 1.14 1.15 1.21 1.18 1.21 1.25 1.30 1.36 1.36 1.28 1.37 1.37 1.31 1.34 1.34
0.45 0.48 0.51 0.56 0.64 0.66 0.70 0.76 0.89 1.14 1.28 1.44 1.78 1.82 1.69 1.76 1.62 1.46 1.33 1.25 1.23 1.24 1.20 1.21 1.18 1.21 1.18 1.20 1.12 1.16 1.22 1.21 1.15 1.17 1.20 1.29 1.33 1.31 1.29 1.30 1.30 1.34 1.31
0.45 0.43 0.46 0.51 0.54 0.58 0.58 0.59 0.63 0.74 0.96 1.20 1.41 1.62 1.78 1.82 1.83 1.67 1.49 1.34 1.32 1.35 1.29 1.25 1.22 1.14 1.12 1.14 1.12 1.09 1.19 1.22 1.22 1.12 1.11 1.20 1.27 1.29 1.29 1.27 1.26 1.26 1.27
0.47 0.46 0.44 0.45 0.45 0.47 0.53 0.54 0.54 0.56 0.63 0.77 0.99 1.23 1.47 1.68 1.63 1.70 1.60 1.50 1.45 1.44 1.38 1.31 1.20 1.17 1.05 1.08 1.12 1.11 1.16 1.16 1.19 1.24 1.10 1.06 1.18 1.24 1.25 1.26 1.27 1.27 1.28
0.47 0.47 0.45 0.44 0.43 0.44 0.44 0.44 0.46 0.46 0.47 0.54 0.66 0.85 1.13 1.43 1.57 1.70 1.75 1.57 1.63 1.45 1.39 1.40 1.28 1.29 1.18 1.11 1.12 1.12 1.13 1.15 1.17 1.18 1.19 1.15 1.08 1.20 1.25 1.24 1.28 1.30 1.31
0.45 0.44 0.43 0.42 0.42 0.42 0.41 0.39 0.37 0.37 0.37 0.39 0.44 0.58 0.79 1.07 1.34 1.49 1.71 1.60 1.45 1.47 1.42 1.52 1.42 1.27 1.29 1.37 1.20 1.14 1.16 1.19 1.13 1.20 1.21 1.19 1.16 1.12 1.20 1.26 1.24 1.28 1.30
0.44 0.44 0.42 0.41 0.41 0.41 0.41 0.41 0.41 0.39 0.40 0.39 0.40 0.42 0.53 0.79 1.00 1.27 1.46 1.63 1.47 1.46 1.46 1.51 1.42 1.31 1.33 1.43 1.25 1.14 0.93 1.05 1.11 1.13 1.18 1.15 1.16 1.20 1.08 1.17 1.22 1.25 1.27
0.42 0.43 0.43 0.43 0.42 0.43 0.43 0.42 0.42 0.43 0.41 0.40 0.40 0.40 0.41 0.49 0.77 0.96 1.19 1.38 1.63 1.45 1.31 1.49 1.43 1.33 1.23 1.37 1.40 1.25 0.97 0.79 0.88 1.06 1.06 1.14 1.15 1.17 1.18 1.14 1.18 1.23 1.29
0.43 0.45 0.45 0.45 0.45 0.45 0.47 0.44 0.43 0.40 0.38 0.40 0.41 0.42 0.42 0.43 0.49 0.76 0.94 1.10 1.33 1.52 1.53 1.54 1.34 1.29 1.30 1.23 1.35 1.39 1.36 1.09 0.79 0.72 0.99 1.05 1.13 1.13 1.17 1.17 1.13 1.19 1.27
0.46 0.46 0.47 0.49 0.49 0.50 0.50 0.48 0.45 0.41 0.41 0.43 0.43 0.43 0.44 0.44 0.42 0.50 0.75 0.91 1.05 1.24 1.43 1.34 1.31 1.25 1.37 1.25 1.26 1.23 1.26 1.27 1.07 0.79 0.66 0.81 1.05 1.09 1.17 1.20 1.15 1.19 1.29
0.48 0.48 0.47 0.46 0.45 0.47 0.46 0.46 0.44 0.43 0.41 0.42 0.44 0.43 0.44 0.44 0.44 0.45 0.54 0.72 0.87 1.06 1.15 1.32 1.36 1.40 1.35 1.45 1.36 1.31 1.22 1.18 1.10 0.87 0.72 0.79 0.78 0.93 1.07 1.18 1.15 1.21 1.28

GFSSE_prec_pwat_132.txt.gz
Precipitable_Water
1.17 1.26 1.31 1.24 1.16 1.15 1.15 1.14 1.15 1.14 1.08 1.07 1.08 1.05 1.04 0.99 1.00 1.09 1.11 1.13 1.13 1.15 1.15 1.16 1.12 1.14 1.23 1.28 1.33 1.39 1.42 1.44 1.47 1.47 1.49 1.50 1.50 1.52 1.54 1.55 1.54 1.50 1.56
1.25 1.37 1.35 1.29 1.20 1.16 1.13 1.13 1.16 1.19 1.16 1.13 1.14 1.12 1.09 1.04 1.03 1.04 1.08 1.11 1.12 1.16 1.19 1.14 1.11 1.17 1.20 1.20 1.25 1.36 1.40 1.43 1.43 1.47 1.51 1.49 1.52 1.56 1.56 1.54 1.53 1.56 1.58
1.18 1.30 1.33 1.36 1.30 1.25 1.17 1.12 1.12 1.16 1.18 1.18 1.17 1.18 1.16 1.11 1.06 1.04 1.06 1.09 1.13 1.16 1.13 1.12 1.14 1.19 1.17 1.22 1.30 1.36 1.41 1.42 1.41 1.44 1.46 1.50 1.56 1.58 1.60 1.55 1.54 1.60 1.62
1.13 1.18 1.26 1.33 1.37 1.35 1.27 1.20 1.16 1.14 1.15 1.18 1.19 1.18 1.21 1.12 1.05 1.03 1.02 1.06 1.10 1.12 1.13 1.14 1.15 1.14 1.18 1.24 1.33 1.38 1.40 1.41 1.40 1.41 1.43 1.49 1.55 1.61 1.59 1.56 1.55 1.60 1.62
1.16 1.25 1.28 1.31 1.35 1.36 1.33 1.30 1.24 1.19 1.13 1.16 1.18 1.19 1.21 1.18 1.08 1.03 1.04 1.06 1.08 1.12 1.18 1.20 1.17 1.15 1.17 1.26 1.32 1.34 1.36 1.38 1.39 1.40 1.40 1.49 1.50 1.58 1.56 1.51 1.56 1.60 1.63
1.16 1.30 1.33 1.34 1.34 1.37 1.39 1.39 1.35 1.24 1.17 1.18 1.19 1.18 1.21 1.24 1.17 1.11 1.09 1.09 1.11 1.16 1.20 1.23 1.21 1.15 1.19 1.29 1.31 1.33 1.36 1.37 1.37 1.37 1.41 1.51 1.49 1.53 1.51 1.51 1.54 1.59 1.62
1.15 1.29 1.33 1.36 1.38 1.41 1.46 1.53 1.50 1.40 1.28 1.24 1.22 1.21 1.20 1.24 1.24 1.15 1.12 1.10 1.13 1.19 1.21 1.23 1.22 1.20 1.23 1.29 1.30 1.33 1.36 1.39 1.35 1.31 1.36 1.46 1.48 1.50 1.52 1.53 1.51 1.57 1.62
1.18 1.26 1.30 1.35 1.37 1.37 1.37 1.44 1.55 1.50 1.39 1.32 1.30 1.27 1.26 1.25 1.25 1.17 1.13 1.13 1.14 1.17 1.19 1.20 1.20 1.23 1.24 1.29 1.29 1.29 1.35 1.34 1.35 1.31 1.38 1.39 1.41 1.45 1.48 1.51 1.50 1.54 1.59
1.20 1.24 1.28 1.32 1.34 1.36 1.43 1.46 1.53 1.56 1.48 1.42 1.39 1.35 1.33 1.29 1.29 1.24 1.21 1.19 1.15 1.12 1.17 1.21 1.22 1.23 1.26 1.31 1.28 1.26 1.31 1.28 1.27 1.36 1.35 1.30 1.35 1.44 1.50 1.52 1.52 1.52 1.55
0.95 1.15 1.25 1.32 1.36 1.39 1.42 1.49 1.58 1.66 1.61 1.52 1.50 1.47 1.41 1.38 1.37 1.35 1.28 1.26 1.22 1.17 1.17 1.20 1.21 1.22 1.28 1.31 1.28 1.25 1.28 1.29 1.22 1.35 1.27 1.31 1.34 1.38 1.45 1.49 1.53 1.52 1.53
0.75 0.94 1.16 1.25 1.31 1.38 1.42 1.44 1.49 1.59 1.69 1.69 1.59 1.55 1.52 1.45 1.42 1.42 1.37 1.29 1.27 1.23 1.20 1.20 1.20 1.20 1.26 1.30 1.29 1.29 1.28 1.26 1.19 1.21 1.28 1.33 1.30 1.32 1.40 1.44 1.48 1.54 1.53
0.68 0.81 0.97 1.10 1.15 1.26 1.35 1.46 1.45 1.50 1.59 1.70 1.69 1.65 1.61 1.53 1.49 1.49 1.46 1.40 1.32 1.29 1.28 1.26 1.25 1.24 1.27 1.28 1.28 1.31 1.28 1.25 1.21 1.19 1.32 1.35 1.30 1.27 1.29 1.39 1.41 1.51 1.53
0.62 0.68 0.78 0.82 0.88 0.94 0.95 1.15 1.35 1.48 1.51 1.58 1.66 1.70 1.72 1.68 1.59 1.52 1.50 1.44 1.38 1.34 1.31 1.32 1.28 1.26 1.24 1.25 1.25 1.26 1.27 1.25 1.20 1.24 1.28 1.36 1.33 1.27 1.31 1.34 1.36 1.44 1.53
0.55 0.58 0.63 0.67 0.72 0.74 0.78 0.84 0.95 1.12 1.35 1.50 1.59 1.71 1.64 1.63 1.62 1.57 1.52 1.48 1.43 1.38 1.32 1.31 1.32 1.30 1.28 1.27 1.26 1.22 1.24 1.22 1.19 1.24 1.26 1.27 1.31 1.33 1.36 1.35 1.34 1.41 1.48
0.49 0.52 0.57 0.57 0.58 0.63 0.66 0.72 0.78 0.80 0.95 1.13 1.42 1.54 1.76 1.70 1.63 1.62 1.57 1.57 1.53 1.49 1.41 1.33 1.32 1.33 1.30 1.29 1.27 1.25 1.23 1.21 1.21 1.16 1.23 1.27 1.30 1.35 1.39 1.40 1.44 1.43 1.43
0.46 0.48 0.51 0.54 0.53 0.54 0.56 0.57 0.60 0.63 0.65 0.72 0.88 1.08 1.27 1.62 1.68 1.71 1.67 1.61 1.55 1.56 1.46 1.41 1.34 1.36 1.33 1.33 1.27 1.30 1.24 1.22 1.21 1.18 1.17 1.25 1.26 1.28 1.33 1.40 1.45 1.43 1.42
0.46 0.46 0.47 0.49 0.51 0.49 0.50 0.53 0.53 0.55 0.58 0.55 0.55 0.67 0.81 0.97 1.18 1.52 1.68 1.69 1.71 1.70 1.60 1.50 1.45 1.40 1.36 1.37 1.30 1.32 1.29 1.24 1.18 1.17 1.17 1.25 1.25 1.25 1.29 1.35 1.32 1.39 1.36
0.46 0.46 0.47 0.47 0.47 0.47 0.48 0.49 0.49 0.51 0.53 0.52 0.51 0.55 0.55 0.62 0.77 0.92 1.08 1.12 1.44 1.60 1.77 1.61 1.41 1.43 1.35 1.33 1.31 1.31 1.32 1.28 1.22 1.18 1.17 1.19 1.26 1.22 1.25 1.26 1.25 1.30 1.25
0.47 0.47 0.47 0.47 0.46 0.46 0.46 0.47 0.46 0.47 0.49 0.46 0.50 0.49 0.48 0.48 0.59 0.62 0.73 0.88 1.10 1.23 1.38 1.71 1.58 1.42 1.32 1.38 1.31 1.33 1.32 1.29 1.28 1.22 1.15 1.13 1.16 1.22 1.22 1.23 1.20 1.21 1.22
0.46 0.46 0.47 0.47 0.46 0.45 0.45 0.45 0.44 0.43 0.43 0.44 0.45 0.44 0.46 0.50 0.48 0.49 0.52 0.58 0.77 0.87 0.88 1.06 1.45 1.53 1.42 1.37 1.32 1.30 1.30 1.27 1.32 1.26 1.21 1.17 1.16 1.23 1.22 1.23 1.22 1.18 1.16
0.44 0.44 0.45 0.44 0.45 0.45 0.43 0.42 0.41 0.41 0.43 0.44 0.44 0.45 0.47 0.45 0.47 0.46 0.44 0.45 0.50 0.61 0.80 0.94 1.09 1.33 1.23 1.43 1.37 1.29 1.33 1.30 1.29 1.27 1.25 1.29 1.22 1.22 1.23 1.22 1.25 1.23 1.21
0.42 0.43 0.44 0.44 0.45 0.45 0.44 0.45 0.44 0.44 0.44 0.45 0.46 0.45 0.46 0.46 0.45 0.45 0.44 0.44 0.45 0.47 0.61 0.76 0.91 1.15 1.23 1.26 1.33 1.28 1.11 1.24 1.27 1.29 1.23 1.21 1.23 1.27 1.23 1.22 1.23 1.24 1.24
0.42 0.43 0.43 0.44 0.45 0.45 0.46 0.45 0.45 0.45 0.44 0.43 0.44 0.45 0.45 0.46 0.46 0.46 0.47 0.48 0.46 0.48 0.49 0.65 0.85 0.95 1.05 1.30 1.33 1.25 1.11 1.02 1.12 1.25 1.20 1.19 1.21 1.24 1.24 1.26 1.23 1.24 1.28
0.42 0.45 0.44 0.46 0.46 0.46 0.47 0.45 0.44 0.43 0.41 0.43 0.44 0.45 0.45 0.47 0.48 0.49 0.48 0.48 0.48 0.47 0.47 0.50 0.72 0.90 1.00 1.01 1.24 1.52 1.45 1.43 1.03 0.96 1.16 1.20 1.27 1.22 1.17 1.19 1.24 1.26 1.29
0.43 0.42 0.43 0.44 0.43 0.44 0.44 0.44 0.43 0.42 0.43 0.43 0.43 0.44 0.45 0.47 0.48 0.49 0.50 0.50 0.49 0.50 0.51 0.51 0.60 0.76 0.94 0.99 1.20 1.30 1.29 1.30 1.43 1.18 1.00 1.09 1.25 1.30 1.29 1.30 1.26 1.25 1.29
0.40 0.39 0.40 0.41 0.41 0.42 0.43 0.43 0.41 0.40 0.41 0.41 0.42 0.43 0.47 0.49 0.50 0.51 0.52 0.53 0.52 0.50 0.48 0.52 0.60 0.70 0.88 0.96 1.15 1.24 1.20 1.16 1.09 1.23 1.13 1.12 1.09 1.14 1.24 1.32 1.31 1.30 1.30

GFSSE_prec_pwat_135.txt.gz
Precipitable_Water
1.16 1.31 1.38 1.32 1.23 1.16 1.15 1.14 1.17 1.17 1.19 1.15 1.10 1.08 1.03 1.00 1.02 1.09 1.12 1.12 1.13 1.18 1.20 1.18 1.15 1.15 1.22 1.27 1.34 1.38 1.41 1.44 1.50 1.51 1.49 1.51 1.50 1.52 1.56 1.52 1.53 1.56 1.57
1.31 1.42 1.45 1.43 1.31 1.21 1.15 1.15 1.18 1.19 1.20 1.19 1.16 1.12 1.09 1.02 1.00 1.05 1.09 1.10 1.12 1.16 1.15 1.18 1.13 1.14 1.21 1.24 1.27 1.32 1.37 1.43 1.43 1.46 1.50 1.51 1.53 1.55 1.56 1.54 1.52 1.60 1.59
1.30 1.44 1.47 1.48 1.42 1.36 1.29 1.26 1.23 1.22 1.24 1.26 1.23 1.19 1.14 1.09 1.04 1.03 1.05 1.08 1.09 1.11 1.12 1.15 1.13 1.17 1.16 1.16 1.24 1.32 1.38 1.41 1.43 1.48 1.50 1.52 1.56 1.61 1.60 1.57 1.55 1.57 1.59
1.24 1.30 1.38 1.44 1.47 1.49 1.49 1.42 1.33 1.28 1.25 1.27 1.28 1.26 1.19 1.17 1.12 1.04 1.01 1.04 1.10 1.11 1.10 1.13 1.13 1.16 1.16 1.20 1.26 1.35 1.38 1.40 1.44 1.50 1.50 1.53 1.57 1.60 1.60 1.58 1.55 1.56 1.63
1.23 1.31 1.35 1.38 1.42 1.48 1.51 1.50 1.46 1.39 1.31 1.26 1.28 1.30 1.30 1.24 1.18 1.12 1.03 1.04 1.08 1.08 1.08 1.12 1.16 1.13 1.15 1.21 1.29 1.34 1.37 1.40 1.43 1.46 1.48 1.52 1.58 1.62 1.62 1.56 1.55 1.59 1.66
1.23 1.37 1.41 1.43 1.43 1.45 1.49 1.51 1.52 1.50 1.42 1.35 1.29 1.31 1.32 1.30 1.24 1.19 1.12 1.07 1.07 1.07 1.10 1.13 1.15 1.14 1.14 1.19 1.31 1.34 1.35 1.37 1.39 1.40 1.41 1.49 1.57 1.61 1.60 1.53 1.55 1.59 1.64
1.22 1.33 1.36 1.37 1.39 1.41 1.46 1.49 1.55 1.58 1.52 1.42 1.39 1.37 1.33 1.31 1.30 1.26 1.22 1.16 1.12 1.11 1.14 1.15 1.17 1.14 1.14 1.22 1.31 1.33 1.34 1.34 1.35 1.34 1.38 1.46 1.51 1.51 1.57 1.53 1.56 1.55 1.61
1.21 1.27 1.32 1.34 1.34 1.36 1.40 1.46 1.51 1.55 1.58 1.52 1.45 1.44 1.42 1.38 1.39 1.39 1.35 1.30 1.23 1.18 1.17 1.16 1.16 1.13 1.15 1.24 1.29 1.32 1.33 1.32 1.33 1.31 1.33 1.42 1.49 1.48 1.54 1.54 1.53 1.55 1.60
1.17 1.29 1.32 1.33 1.32 1.32 1.35 1.42 1.49 1.58 1.63 1.63 1.55 1.50 1.49 1.46 1.43 1.43 1.42 1.38 1.33 1.31 1.27 1.21 1.17 1.15 1.16 1.21 1.27 1.31 1.32 1.35 1.36 1.32 1.37 1.39 1.37 1.43 1.51 1.55 1.54 1.55 1.58
0.98 1.08 1.15 1.27 1.35 1.36 1.36 1.38 1.44 1.54 1.63 1.66 1.68 1.65 1.56 1.52 1.53 1.50 1.46 1.42 1.39 1.34 1.25 1.25 1.22 1.20 1.19 1.21 1.26 1.29 1.30 1.32 1.32 1.34 1.41 1.36 1.30 1.35 1.45 1.48 1.52 1.56 1.56
0.81 0.90 1.01 1.09 1.16 1.26 1.30 1.40 1.45 1.46 1.55 1.66 1.68 1.71 1.76 1.61 1.58 1.55 1.52 1.47 1.41 1.39 1.33 1.27 1.26 1.24 1.23 1.25 1.29 1.26 1.28 1.31 1.29 1.26 1.38 1.30 1.33 1.31 1.37 1.45 1.48 1.52 1.55
0.69 0.76 0.83 0.90 0.93 0.98 1.08 1.20 1.29 1.39 1.48 1.55 1.63 1.67 1.75 1.75 1.67 1.60 1.56 1.53 1.47 1.44 1.42 1.37 1.32 1.30 1.29 1.29 1.32 1.32 1.26 1.28 1.29 1.22 1.26 1.27 1.33 1.32 1.29 1.37 1.42 1.46 1.50
0.60 0.64 0.67 0.67 0.72 0.78 0.84 0.92 0.99 1.08 1.21 1.41 1.51 1.60 1.67 1.68 1.72 1.73 1.64 1.59 1.56 1.51 1.48 1.44 1.40 1.34 1.29 1.29 1.31 1.33 1.31 1.29 1.26 1.24 1.21 1.23 1.33 1.32 1.27 1.29 1.38 1.44 1.46
0.52 0.53 0.57 0.60 0.61 0.63 0.68 0.69 0.73 0.78 0.88 1.03 1.25 1.37 1.47 1.62 1.62 1.64 1.67 1.66 1.63 1.61 1.52 1.46 1.41 1.38 1.31 1.31 1.32 1.32 1.33 1.29 1.27 1.25 1.22 1.26 1.29 1.31 1.29 1.28 1.32 1.40 1.44
0.47 0.50 0.53 0.56 0.57 0.59 0.61 0.63 0.65 0.65 0.66 0.69 0.83 1.02 1.14 1.22 1.37 1.62 1.63 1.62 1.59 1.65 1.62 1.56 1.50 1.45 1.38 1.33 1.33 1.33 1.33 1.31 1.30 1.27 1.23 1.26 1.29 1.29 1.33 1.35 1.36 1.33 1.43
0.44 0.45 0.49 0.52 0.54 0.54 0.55 0.58 0.59 0.60 0.65 0.63 0.60 0.70 0.84 0.94 1.04 1.23 1.35 1.73 1.66 1.66 1.64 1.65 1.68 1.60 1.47 1.40 1.32 1.32 1.32 1.36 1.33 1.32 1.26 1.22 1.26 1.31 1.34 1.40 1.41 1.41 1.48
0.44 0.45 0.46 0.48 0.50 0.50 0.51 0.52 0.53 0.56 0.60 0.61 0.58 0.62 0.59 0.61 0.64 0.81 1.04 1.11 1.37 1.69 1.69 1.59 1.67 1.72 1.58 1.50 1.38 1.32 1.34 1.34 1.34 1.34 1.30 1.25 1.23 1.27 1.30 1.33 1.35 1.41 1.47
0.45 0.46 0.48 0.49 0.49 0.49 0.49 0.49 0.49 0.49 0.53 0.52 0.53 0.59 0.55 0.54 0.57 0.61 0.66 0.79 1.02 1.10 1.08 1.01 1.38 1.48 1.62 1.55 1.40 1.37 1.35 1.37 1.36 1.32 1.36 1.27 1.21 1.24 1.29 1.30 1.34 1.35 1.36
0.45 0.46 0.47 0.48 0.49 0.50 0.50 0.50 0.49 0.49 0.49 0.47 0.50 0.49 0.50 0.56 0.56 0.54 0.55 0.58 0.67 0.78 0.93 0.85 0.81 0.96 1.29 1.56 1.47 1.46 1.42 1.36 1.37 1.36 1.30 1.31 1.24 1.20 1.28 1.32 1.29 1.32 1.32
0.46 0.47 0.47 0.47 0.48 0.47 0.47 0.47 0.46 0.46 0.46 0.46 0.47 0.47 0.50 0.49 0.48 0.50 0.49 0.48 0.48 0.50 0.62 0.78 0.79 0.76 0.71 1.14 1.42 1.46 1.44 1.40 1.39 1.34 1.30 1.33 1.28 1.21 1.18 1.29 1.29 1.29 1.30
0.44 0.44 0.44 0.44 0.45 0.44 0.43 0.41 0.41 0.41 0.43 0.45 0.46 0.47 0.47 0.48 0.49 0.47 0.47 0.48 0.49 0.46 0.49 0.56 0.67 0.68 0.71 1.02 1.27 1.28 1.33 1.37 1.32 1.29 1.29 1.30 1.31 1.24 1.21 1.15 1.24 1.30 1.29
0.42 0.43 0.43 0.44 0.45 0.44 0.43 0.43 0.42 0.42 0.43 0.44 0.46 0.46 0.47 0.47 0.48 0.47 0.47 0.46 0.48 0.49 0.49 0.49 0.55 0.65 0.71 0.80 0.80 1.04 1.03 1.11 1.22 1.29 1.28 1.24 1.25 1.29 1.20 1.17 1.19 1.27 1.26
0.41 0.42 0.41 0.42 0.42 0.43 0.44 0.43 0.43 0.43 0.42 0.42 0.43 0.44 0.47 0.49 0.49 0.48 0.49 0.48 0.48 0.49 0.46 0.50 0.53 0.57 0.61 0.73 0.83 0.81 0.80 0.79 1.01 1.21 1.26 1.26 1.25 1.27 1.21 1.24 1.22 1.25 1.29
0.41 0.41 0.39 0.40 0.40 0.39 0.40 0.39 0.38 0.36 0.35 0.38 0.40 0.43 0.44 0.48 0.50 0.51 0.51 0.51 0.50 0.50 0.48 0.47 0.51 0.53 0.64 0.65 0.81 0.80 0.87 0.93 0.89 0.95 1.21 1.29 1.30 1.27 1.22 1.18 1.22 1.24 1.31
0.39 0.39 0.39 0.41 0.40 0.41 0.41 0.41 0.39 0.37 0.38 0.40 0.41 0.42 0.43 0.46 0.48 0.49 0.51 0.52 0.52 0.52 0.51 0.49 0.49 0.51 0.56 0.67 0.78 0.75 0.77 0.81 0.98 1.06 0.99 1.13 1.28 1.37 1.32 1.26 1.25 1.26 1.31
0.40 0.40 0.40 0.40 0.40 0.41 0.41 0.41 0.41 0.40 0.41 0.41 0.42 0.41 0.42 0.45 0.48 0.51 0.52 0.53 0.53 0.52 0.51 0.50 0.49 0.47 0.49 0.56 0.72 0.86 0.79 0.76 0.76 0.94 1.01 1.13 1.16 1.32 1.39 1.36 1.34 1.35 1.37

GFSSE_prec_pwat_141.txt.gz
Precipitable_Water
1.40 1.38 1.35 1.25 1.18 1.14 1.14 1.15 1.17 1.18 1.21 1.21 1.24 1.28 1.28 1.23 1.22 1.17 1.20 1.17 1.15 1.17 1.16 1.16 1.18 1.19 1.23 1.28 1.26 1.29 1.34 1.39 1.43 1.44 1.45 1.45 1.46 1.45 1.44 1.43 1.56 1.61 1.55
1.52 1.47 1.44 1.38 1.31 1.26 1.24 1.23 1.24 1.27 1.30 1.29 1.26 1.26 1.31 1.31 1.22 1.17 1.21 1.20 1.20 1.19 1.20 1.19 1.17 1.19 1.22 1.22 1.23 1.25 1.29 1.38 1.40 1.42 1.45 1.46 1.49 1.47 1.46 1.53 1.67 1.59 1.52
1.54 1.54 1.52 1.49 1.45 1.38 1.35 1.33 1.34 1.37 1.39 1.39 1.33 1.32 1.32 1.32 1.28 1.24 1.21 1.19 1.22 1.22 1.23 1.21 1.17 1.17 1.19 1.21 1.20 1.26 1.32 1.37 1.39 1.41 1.42 1.54 1.48 1.50 1.47 1.56 1.61 1.54 1.54
1.49 1.60 1.57 1.51 1.51 1.47 1.42 1.40 1.39 1.40 1.42 1.46 1.45 1.41 1.40 1.37 1.33 1.29 1.27 1.24 1.22 1.21 1.24 1.22 1.20 1.19 1.20 1.16 1.19 1.26 1.33 1.37 1.38 1.40 1.43 1.47 1.55 1.50 1.48 1.54 1.60 1.54 1.57
1.52 1.57 1.50 1.51 1.49 1.48 1.47 1.46 1.45 1.43 1.43 1.43 1.49 1.48 1.45 1.43 1.41 1.40 1.33 1.26 1.25 1.23 1.20 1.19 1.20 1.22 1.21 1.15 1.20 1.28 1.31 1.35 1.36 1.37 1.52 1.51 1.58 1.52 1.53 1.52 1.54 1.54 1.57
1.57 1.53 1.46 1.47 1.48 1.49 1.50 1.49 1.49 1.49 1.45 1.43 1.44 1.50 1.50 1.46 1.43 1.42 1.47 1.33 1.24 1.23 1.22 1.19 1.18 1.21 1.20 1.17 1.21 1.29 1.33 1.34 1.34 1.37 1.76 1.67 1.48 1.66 1.57 1.56 1.55 1.53 1.61
1.39 1.41 1.38 1.41 1.42 1.46 1.46 1.47 1.48 1.48 1.49 1.49 1.46 1.45 1.50 1.51 1.49 1.46 1.43 1.41 1.35 1.28 1.27 1.21 1.21 1.23 1.18 1.16 1.22 1.29 1.35 1.35 1.32 1.39 1.55 1.55 1.49 1.61 1.56 1.54 1.56 1.57 1.59
1.21 1.25 1.27 1.31 1.31 1.32 1.29 1.30 1.35 1.39 1.43 1.48 1.53 1.51 1.50 1.49 1.55 1.54 1.42 1.41 1.41 1.39 1.33 1.28 1.26 1.27 1.25 1.21 1.22 1.29 1.36 1.34 1.31 1.44 1.35 1.57 1.53 1.52 1.52 1.50 1.55 1.57 1.58
1.11 1.12 1.13 1.16 1.19 1.23 1.27 1.29 1.34 1.36 1.37 1.44 1.52 1.57 1.57 1.57 1.55 1.56 1.50 1.44 1.41 1.39 1.39 1.35 1.34 1.32 1.29 1.25 1.25 1.31 1.36 1.35 1.33 1.34 1.40 1.51 1.45 1.52 1.44 1.49 1.50 1.53 1.55
0.96 1.01 1.03 1.05 1.10 1.14 1.18 1.23 1.30 1.34 1.38 1.41 1.47 1.56 1.61 1.65 1.62 1.61 1.58 1.55 1.50 1.46 1.41 1.39 1.39 1.36 1.33 1.28 1.24 1.30 1.34 1.36 1.31 1.40 1.47 1.42 1.47 1.49 1.37 1.42 1.45 1.51 1.54
0.77 0.80 0.85 0.87 0.92 0.98 0.99 1.10 1.17 1.24 1.31 1.35 1.33 1.37 1.55 1.66 1.75 1.75 1.70 1.64 1.68 1.57 1.50 1.43 1.42 1.45 1.39 1.38 1.32 1.30 1.33 1.34 1.34 1.29 1.54 1.43 1.40 1.47 1.33 1.37 1.42 1.48 1.52
0.62 0.65 0.70 0.72 0.74 0.76 0.78 0.84 0.88 0.95 1.01 1.09 1.12 1.19 1.34 1.53 1.72 1.82 1.85 1.83 1.80 1.66 1.59 1.55 1.49 1.47 1.48 1.43 1.41 1.35 1.33 1.35 1.37 1.41 1.44 1.41 1.41 1.42 1.30 1.35 1.37 1.42 1.50
0.55 0.58 0.60 0.62 0.64 0.63 0.65 0.69 0.73 0.75 0.77 0.85 0.87 0.98 1.07 1.20 1.31 1.54 1.71 1.76 1.77 1.79 1.76 1.67 1.60 1.53 1.51 1.50 1.42 1.50 1.38 1.35 1.40 1.38 1.62 1.42 1.37 1.36 1.30 1.36 1.35 1.36 1.44
0.49 0.53 0.55 0.58 0.59 0.60 0.62 0.61 0.64 0.65 0.68 0.73 0.76 0.75 0.80 0.86 0.95 1.05 1.16 1.45 1.69 1.74 1.77 1.80 1.76 1.69 1.62 1.61 1.57 1.50 1.56 1.37 1.41 1.52 1.42 1.54 1.37 1.29 1.32 1.37 1.37 1.32 1.36
0.44 0.49 0.51 0.53 0.54 0.54 0.54 0.57 0.58 0.57 0.58 0.62 0.68 0.69 0.75 0.71 0.71 0.78 0.86 1.03 1.15 1.32 1.60 1.75 1.75 1.76 1.71 1.65 1.60 1.55 1.58 1.56 1.40 1.50 1.65 1.48 1.42 1.35 1.30 1.33 1.41 1.30 1.31
0.44 0.46 0.50 0.50 0.52 0.53 0.52 0.53 0.53 0.53 0.54 0.55 0.59 0.58 0.65 0.66 0.67 0.68 0.70 0.76 0.88 1.06 1.10 1.25 1.38 1.75 1.70 1.78 1.70 1.69 1.61 1.66 1.65 1.44 1.54 1.54 1.41 1.42 1.30 1.32 1.39 1.35 1.29
0.45 0.47 0.48 0.48 0.52 0.52 0.51 0.52 0.52 0.53 0.55 0.54 0.56 0.56 0.59 0.59 0.60 0.63 0.67 0.67 0.73 0.88 0.91 0.95 1.02 1.17 1.37 1.64 1.65 1.70 1.73 1.64 1.68 1.62 1.60 1.63 1.58 1.44 1.39 1.33 1.35 1.36 1.37
0.46 0.47 0.49 0.51 0.52 0.52 0.51 0.52 0.52 0.53 0.54 0.54 0.55 0.55 0.58 0.58 0.60 0.60 0.56 0.57 0.65 0.75 0.78 0.84 0.86 0.79 0.78 0.91 1.12 1.33 1.47 1.48 1.41 1.71 1.69 1.58 1.58 1.58 1.46 1.42 1.33 1.32 1.36
0.47 0.47 0.47 0.49 0.50 0.50 0.50 0.50 0.50 0.51 0.51 0.52 0.52 0.52 0.54 0.55 0.57 0.56 0.55 0.56 0.60 0.62 0.63 0.65 0.73 0.85 0.77 0.65 0.58 0.64 0.84 0.97 1.27 1.39 1.52 1.59 1.58 1.55 1.51 1.48 1.42 1.32 1.33
0.46 0.46 0.46 0.47 0.49 0.47 0.45 0.45 0.44 0.43 0.44 0.45 0.46 0.48 0.50 0.51 0.52 0.51 0.51 0.53 0.55 0.54 0.54 0.57 0.60 0.66 0.76 0.76 0.73 0.63 0.63 0.66 0.71 1.08 1.31 1.28 1.49 1.54 1.51 1.49 1.49 1.45 1.35
0.44 0.45 0.44 0.43 0.45 0.43 0.40 0.38 0.38 0.37 0.39 0.41 0.44 0.45 0.47 0.49 0.51 0.52 0.50 0.50 0.52 0.50 0.52 0.56 0.57 0.57 0.60 0.70 0.73 0.73 0.67 0.69 0.71 0.73 0.97 1.12 1.23 1.40 1.48 1.37 1.42 1.46 1.43
0.43 0.45 0.43 0.42 0.42 0.41 0.41 0.41 0.40 0.40 0.41 0.42 0.44 0.46 0.47 0.47 0.48 0.47 0.47 0.49 0.52 0.52 0.52 0.53 0.55 0.56 0.58 0.60 0.58 0.67 0.57 0.62 0.71 0.68 0.79 1.02 1.11 1.39 1.37 1.42 1.43 1.32 1.44
0.42 0.42 0.40 0.42 0.42 0.43 0.43 0.42 0.41 0.42 0.41 0.41 0.41 0.42 0.44 0.45 0.46 0.46 0.46 0.46 0.46 0.50 0.51 0.54 0.55 0.55 0.53 0.58 0.62 0.64 0.59 0.55 0.63 0.83 0.78 0.84 1.13 1.24 1.26 1.35 1.40 1.30 1.31
0.41 0.42 0.43 0.44 0.43 0.43 0.44 0.42 0.41 0.38 0.36 0.39 0.40 0.42 0.43 0.45 0.45 0.46 0.46 0.46 0.46 0.47 0.46 0.48 0.54 0.57 0.57 0.52 0.59 0.64 0.77 0.77 0.71 0.70 0.86 0.84 0.89 0.99 1.18 1.24 1.31 1.44 1.31
0.41 0.42 0.44 0.44 0.44 0.45 0.45 0.45 0.42 0.40 0.40 0.40 0.40 0.41 0.42 0.44 0.46 0.46 0.47 0.48 0.47 0.49 0.49 0.48 0.49 0.51 0.55 0.55 0.56 0.57 0.61 0.69 0.77 0.74 0.67 0.82 1.17 1.09 1.07 1.15 1.26 1.35 1.40
0.42 0.43 0.44 0.44 0.44 0.44 0.42 0.45 0.44 0.42 0.41 0.40 0.42 0.42 0.44 0.46 0.49 0.50 0.50 0.50 0.51 0.51 0.50 0.51 0.52 0.52 0.52 0.53 0.55 0.60 0.62 0.60 0.60 0.70 0.68 0.70 0.72 1.03 1.12 1.23 1.29 1.37 1.39